Observation data for Tahoka on 01/20/2019      Previous  Date  Next       Current Mesonet Observations  Soil Data  Daily Summary Page  Observations in Plain Language
KTAS 200600Z 13008KT 01/M05 A3029 RMK A01 T00081053  RH  064%=      5-min Rain = 0
KTAS 200601Z 13007KT 01/M05 A3029 RMK A01 T00071053  RH  064%=      5-min Rain = 0
KTAS 200602Z 13007KT 01/M05 A3029 RMK A01 T00051054  RH  064%=      5-min Rain = 0
KTAS 200603Z 13007KT 00/M06 A3029 RMK A01 T00041055  RH  065%=      5-min Rain = 0
KTAS 200604Z 12008KT 00/M06 A3029 RMK A01 T00031055  RH  065%=      5-min Rain = 0
KTAS 200605Z 13008KT 00/M05 A3029 RMK A01 T00031054  RH  065%=      5-min Rain = 0
KTAS 200606Z 13008KT 00/M05 A3029 RMK A01 T00031054  RH  066%=      5-min Rain = 0
KTAS 200607Z 13008KT 00/M06 A3029 RMK A01 T00021055  RH  066%=      5-min Rain = 0
KTAS 200608Z 13008KT 00/M06 A3029 RMK A01 T00021055  RH  066%=      5-min Rain = 0
KTAS 200609Z 13007KT 00/M06 A3029 RMK A01 T00011055  RH  066%=      5-min Rain = 0
KTAS 200610Z 12007KT 00/M05 A3029 RMK A01 T00011054  RH  066%=      5-min Rain = 0
KTAS 200611Z 12006KT 00/M05 A3029 RMK A01 T00021053  RH  066%=      5-min Rain = 0
KTAS 200612Z 12007KT 00/M05 A3029 RMK A01 T00021053  RH  066%=      5-min Rain = 0
KTAS 200613Z 12007KT 00/M05 A3029 RMK A01 T00031053  RH  066%=      5-min Rain = 0
KTAS 200614Z 12007KT 00/M05 A3029 RMK A01 T00031053  RH  066%=      5-min Rain = 0
KTAS 200615Z 13007KT 00/M05 A3029 RMK A01 T00031053  RH  066%=      5-min Rain = 0
KTAS 200616Z 13007KT 00/M05 A3029 RMK A01 T00031054  RH  066%=      5-min Rain = 0
KTAS 200617Z 13007KT 00/M05 A303 RMK A01 T00031054  RH  066%=      5-min Rain = 0
KTAS 200618Z 13006KT 00/M06 A303 RMK A01 T00021055  RH  066%=      5-min Rain = 0
KTAS 200619Z 13008KT 00/06 A303 RMK A01 T00000-55  RH  066%=      5-min Rain = 0
KTAS 200620Z 13007KT 00/06 A303 RMK A01 T00-00-55  RH  066%=      5-min Rain = 0
KTAS 200621Z 12007KT M00/M06 A303 RMK A01 T10011055  RH  067%=      5-min Rain = 0
KTAS 200622Z 12007KT M00/M06 A303 RMK A01 T10011055  RH  067%=      5-min Rain = 0
KTAS 200623Z 12007KT 00/05 A303 RMK A01 T00-00-54  RH  067%=      5-min Rain = 0
KTAS 200624Z 13007KT 00/05 A303 RMK A01 T00000-53  RH  067%=      5-min Rain = 0
KTAS 200625Z 13008KT 00/05 A3029 RMK A01 T00000-54  RH  067%=      5-min Rain = 0
KTAS 200626Z 13007KT 00/M05 A3029 RMK A01 T00011053  RH  067%=      5-min Rain = 0
KTAS 200627Z 13007KT 00/M05 A3029 RMK A01 T00011053  RH  067%=      5-min Rain = 0
KTAS 200628Z 13007KT 00/05 A3029 RMK A01 T00-00-54  RH  067%=      5-min Rain = 0
KTAS 200629Z 13007KT M00/M05 A3029 RMK A01 T10011054  RH  067%=      5-min Rain = 0
KTAS 200630Z 13007KT M00/M05 A303 RMK A01 T10011054  RH  067%=      5-min Rain = 0
KTAS 200631Z 13007KT M00/M05 A303 RMK A01 T10011054  RH  068%=      5-min Rain = 0
KTAS 200632Z 13006KT M00/M05 A303 RMK A01 T10021054  RH  068%=      5-min Rain = 0
KTAS 200633Z 13007KT M00/M06 A303 RMK A01 T10021055  RH  068%=      5-min Rain = 0
KTAS 200634Z 12007KT M00/M05 A303 RMK A01 T10021054  RH  068%=      5-min Rain = 0
KTAS 200635Z 12007KT M00/M05 A303 RMK A01 T10021054  RH  068%=      5-min Rain = 0
KTAS 200636Z 13008KT M00/M05 A303 RMK A01 T10021053  RH  068%=      5-min Rain = 0
KTAS 200637Z 14009KT M00/M05 A303 RMK A01 T10011052  RH  068%=      5-min Rain = 0
KTAS 200638Z 14009KT 00/05 A303 RMK A01 T00000-51  RH  068%=      5-min Rain = 0
KTAS 200639Z 14008KT 00/M05 A303 RMK A01 T00011050  RH  068%=      5-min Rain = 0
KTAS 200640Z 15005KT 00/05 A303 RMK A01 T00000-52  RH  068%=      5-min Rain = 0
KTAS 200641Z 15006KT M00/M06 A303 RMK A01 T10041057  RH  067%=      5-min Rain = 0
KTAS 200642Z 15005KT M01/M06 A303 RMK A01 T10071058  RH  068%=      5-min Rain = 0
KTAS 200643Z 15004KT M01/M06 A303 RMK A01 T10081058  RH  069%=      5-min Rain = 0
KTAS 200644Z 15005KT M01/M06 A303 RMK A01 T10091059  RH  069%=      5-min Rain = 0
KTAS 200645Z 14004KT M01/M06 A303 RMK A01 T10101059  RH  069%=      5-min Rain = 0
KTAS 200646Z 14006KT M01/M06 A303 RMK A01 T10101058  RH  070%=      5-min Rain = 0
KTAS 200647Z 14006KT M01/M06 A303 RMK A01 T10101058  RH  070%=      5-min Rain = 0
KTAS 200648Z 14006KT M01/M06 A303 RMK A01 T10101057  RH  070%=      5-min Rain = 0
KTAS 200649Z 14004KT M01/M06 A303 RMK A01 T10091057  RH  070%=      5-min Rain = 0
KTAS 200650Z 14006KT M01/M06 A303 RMK A01 T10091057  RH  070%=      5-min Rain = 0
KTAS 200651Z 14007KT M01/M06 A303 RMK A01 T10091057  RH  070%=      5-min Rain = 0
KTAS 200652Z 14007KT M01/M06 A303 RMK A01 T10091056  RH  070%=      5-min Rain = 0
KTAS 200653Z 13008KT M01/M06 A303 RMK A01 T10081055  RH  070%=      5-min Rain = 0
KTAS 200654Z 13008KT M01/M05 A303 RMK A01 T10061053  RH  070%=      5-min Rain = 0
KTAS 200655Z 14008KT M01/M05 A303 RMK A01 T10051052  RH  070%=      5-min Rain = 0
KTAS 200656Z 15007KT M00/M05 A303 RMK A01 T10031051  RH  070%=      5-min Rain = 0
KTAS 200657Z 15006KT M00/M05 A303 RMK A01 T10031051  RH  070%=      5-min Rain = 0
KTAS 200658Z 14006KT M00/M05 A303 RMK A01 T10041053  RH  069%=      5-min Rain = 0
KTAS 200659Z 14007KT M01/M06 A303 RMK A01 T10051055  RH  069%=      5-min Rain = 0
KTAS 200700Z 13008KT M01/M05 A303 RMK A01 T10051054  RH  069%=      5-min Rain = 0
KTAS 200701Z 13009KT M00/M05 A303 RMK A01 T10041053  RH  070%=      5-min Rain = 0
KTAS 200702Z 13009KT M00/M05 A303 RMK A01 T10041053  RH  069%=      5-min Rain = 0
KTAS 200703Z 13008KT M00/M05 A3029 RMK A01 T10041053  RH  070%=      5-min Rain = 0
KTAS 200704Z 14007KT M00/M05 A3029 RMK A01 T10021051  RH  070%=      5-min Rain = 0
KTAS 200705Z 14007KT M00/M05 A3029 RMK A01 T10021051  RH  069%=      5-min Rain = 0
KTAS 200706Z 14008KT M00/M05 A3029 RMK A01 T10011051  RH  069%=      5-min Rain = 0
KTAS 200707Z 14007KT M00/M05 A303 RMK A01 T10011051  RH  069%=      5-min Rain = 0
KTAS 200708Z 14007KT M00/M05 A303 RMK A01 T10011051  RH  069%=      5-min Rain = 0
KTAS 200709Z 13007KT M00/M05 A3029 RMK A01 T10021052  RH  069%=      5-min Rain = 0
KTAS 200710Z 13008KT M00/M05 A3029 RMK A01 T10031052  RH  069%=      5-min Rain = 0
KTAS 200711Z 13008KT M00/M05 A3029 RMK A01 T10031052  RH  069%=      5-min Rain = 0
KTAS 200712Z 13008KT M00/M05 A3029 RMK A01 T10031052  RH  069%=      5-min Rain = 0
KTAS 200713Z 13008KT M00/M05 A3029 RMK A01 T10031052  RH  069%=      5-min Rain = 0
KTAS 200714Z 13008KT M00/M05 A3029 RMK A01 T10031052  RH  070%=      5-min Rain = 0
KTAS 200715Z 13008KT M00/M05 A3029 RMK A01 T10031051  RH  070%=      5-min Rain = 0
KTAS 200716Z 12009KT M00/M05 A3029 RMK A01 T10011050  RH  070%=      5-min Rain = 0
KTAS 200717Z 13008KT 00/M05 A3029 RMK A01 T00011048  RH  070%=      5-min Rain = 0
KTAS 200718Z 13009KT 00/M05 A3029 RMK A01 T00021048  RH  069%=      5-min Rain = 0
KTAS 200719Z 13009KT 00/M05 A3029 RMK A01 T00021048  RH  069%=      5-min Rain = 0
KTAS 200720Z 13009KT 00/M05 A3029 RMK A01 T00021048  RH  069%=      5-min Rain = 0
KTAS 200721Z 13009KT 00/M05 A3029 RMK A01 T00031047  RH  069%=      5-min Rain = 0
KTAS 200722Z 14009KT 00/M05 A3029 RMK A01 T00041047  RH  068%=      5-min Rain = 0
KTAS 200723Z 14008KT 00/M05 A3029 RMK A01 T00041048  RH  068%=      5-min Rain = 0
KTAS 200724Z 13008KT 00/M05 A3029 RMK A01 T00031049  RH  068%=      5-min Rain = 0
KTAS 200725Z 13008KT 00/M05 A3029 RMK A01 T00021050  RH  068%=      5-min Rain = 0
KTAS 200726Z 13008KT 00/M05 A3029 RMK A01 T00011050  RH  068%=      5-min Rain = 0
KTAS 200727Z 14008KT 00/05 A3029 RMK A01 T00-00-51  RH  069%=      5-min Rain = 0
KTAS 200728Z 13008KT M00/M05 A3029 RMK A01 T10011051  RH  069%=      5-min Rain = 0
KTAS 200729Z 13008KT M00/M05 A3029 RMK A01 T10011050  RH  069%=      5-min Rain = 0
KTAS 200730Z 13007KT M00/M05 A3029 RMK A01 T10011050  RH  069%=      5-min Rain = 0
KTAS 200731Z 14007KT M00/M05 A3029 RMK A01 T10011050  RH  070%=      5-min Rain = 0
KTAS 200732Z 14007KT M00/M05 A3029 RMK A01 T10011049  RH  070%=      5-min Rain = 0
KTAS 200733Z 15005KT M00/M05 A3029 RMK A01 T10011049  RH  070%=      5-min Rain = 0
KTAS 200734Z 14004KT M00/M05 A3029 RMK A01 T10021051  RH  069%=      5-min Rain = 0
KTAS 200735Z 14004KT M00/M05 A3029 RMK A01 T10041053  RH  069%=      5-min Rain = 0
KTAS 200736Z 14003KT M01/M06 A3029 RMK A01 T10061055  RH  069%=      5-min Rain = 0
KTAS 200737Z 14005KT M01/M06 A3029 RMK A01 T10081056  RH  070%=      5-min Rain = 0
KTAS 200738Z 13005KT M01/M06 A3029 RMK A01 T10091056  RH  070%=      5-min Rain = 0
KTAS 200739Z 14006KT M01/M06 A3029 RMK A01 T10091056  RH  071%=      5-min Rain = 0
KTAS 200740Z 15006KT M01/M06 A3029 RMK A01 T10091055  RH  071%=      5-min Rain = 0
KTAS 200741Z 15005KT M01/M05 A3029 RMK A01 T10081053  RH  072%=      5-min Rain = 0
KTAS 200742Z 15005KT M01/M05 A3029 RMK A01 T10081053  RH  072%=      5-min Rain = 0
KTAS 200743Z 15006KT M01/M05 A3029 RMK A01 T10081053  RH  072%=      5-min Rain = 0
KTAS 200744Z 16007KT M01/M05 A3029 RMK A01 T10081053  RH  072%=      5-min Rain = 0
KTAS 200745Z 15007KT M01/M05 A3029 RMK A01 T10091053  RH  072%=      5-min Rain = 0
KTAS 200746Z 15006KT M01/M05 A3029 RMK A01 T10081051  RH  072%=      5-min Rain = 0
KTAS 200747Z 15005KT M01/M05 A3029 RMK A01 T10071050  RH  072%=      5-min Rain = 0
KTAS 200748Z 14005KT M01/M05 A3029 RMK A01 T10071050  RH  072%=      5-min Rain = 0
KTAS 200749Z 14007KT M01/M05 A3029 RMK A01 T10061050  RH  072%=      5-min Rain = 0
KTAS 200750Z 13007KT M01/M05 A3029 RMK A01 T10051049  RH  072%=      5-min Rain = 0
KTAS 200751Z 13007KT M00/M05 A3029 RMK A01 T10041049  RH  072%=      5-min Rain = 0
KTAS 200752Z 13007KT M01/M05 A3029 RMK A01 T10051049  RH  072%=      5-min Rain = 0
KTAS 200753Z 14008KT M01/M05 A3029 RMK A01 T10051050  RH  072%=      5-min Rain = 0
KTAS 200754Z 14007KT M01/M05 A3029 RMK A01 T10051050  RH  072%=      5-min Rain = 0
KTAS 200755Z 14007KT M01/M05 A3029 RMK A01 T10051049  RH  072%=      5-min Rain = 0
KTAS 200756Z 14006KT M00/M05 A3029 RMK A01 T10041049  RH  072%=      5-min Rain = 0
KTAS 200757Z 14006KT M00/M05 A3029 RMK A01 T10041049  RH  072%=      5-min Rain = 0
KTAS 200758Z 14007KT M00/M05 A3029 RMK A01 T10041049  RH  072%=      5-min Rain = 0
KTAS 200759Z 13007KT M00/M05 A3029 RMK A01 T10041049  RH  072%=      5-min Rain = 0
KTAS 200800Z 13008KT M01/M05 A3029 RMK A01 T10051050  RH  072%=      5-min Rain = 0
KTAS 200801Z 13008KT M01/M05 A3029 RMK A01 T10051050  RH  072%=      5-min Rain = 0
KTAS 200802Z 13008KT M01/M05 A3029 RMK A01 T10061050  RH  072%=      5-min Rain = 0
KTAS 200803Z 13008KT M01/M05 A3029 RMK A01 T10051049  RH  072%=      5-min Rain = 0
KTAS 200804Z 14007KT M00/M05 A3029 RMK A01 T10041048  RH  072%=      5-min Rain = 0
KTAS 200805Z 14007KT M00/M05 A3029 RMK A01 T10041048  RH  072%=      5-min Rain = 0
KTAS 200806Z 14006KT M00/M05 A3029 RMK A01 T10031048  RH  072%=      5-min Rain = 0
KTAS 200807Z 14006KT M00/M05 A3029 RMK A01 T10031048  RH  072%=      5-min Rain = 0
KTAS 200808Z 14006KT M00/M05 A3029 RMK A01 T10041049  RH  071%=      5-min Rain = 0
KTAS 200809Z 13007KT M00/M05 A3029 RMK A01 T10041049  RH  071%=      5-min Rain = 0
KTAS 200810Z 13007KT M00/M05 A3029 RMK A01 T10041050  RH  071%=      5-min Rain = 0
KTAS 200811Z 13007KT M01/M05 A3029 RMK A01 T10051050  RH  071%=      5-min Rain = 0
KTAS 200812Z 14007KT M01/M05 A3029 RMK A01 T10051050  RH  072%=      5-min Rain = 0
KTAS 200813Z 14007KT M01/M05 A3028 RMK A01 T10051049  RH  072%=      5-min Rain = 0
KTAS 200814Z 14007KT M00/M05 A3028 RMK A01 T10041049  RH  072%=      5-min Rain = 0
KTAS 200815Z 14006KT M00/M05 A3028 RMK A01 T10041049  RH  072%=      5-min Rain = 0
KTAS 200816Z 14006KT M00/M05 A3028 RMK A01 T10031049  RH  071%=      5-min Rain = 0
KTAS 200817Z 14005KT M00/M05 A3028 RMK A01 T10041049  RH  071%=      5-min Rain = 0
KTAS 200818Z 15004KT M00/M05 A3028 RMK A01 T10041050  RH  071%=      5-min Rain = 0
KTAS 200819Z 14004KT M01/M05 A3028 RMK A01 T10051051  RH  071%=      5-min Rain = 0
KTAS 200820Z 14004KT M01/M05 A3028 RMK A01 T10061052  RH  071%=      5-min Rain = 0
KTAS 200821Z 13005KT M01/M05 A3028 RMK A01 T10071052  RH  071%=      5-min Rain = 0
KTAS 200822Z 14006KT M01/M05 A3028 RMK A01 T10081053  RH  072%=      5-min Rain = 0
KTAS 200823Z 14005KT M01/M05 A3028 RMK A01 T10091054  RH  072%=      5-min Rain = 0
KTAS 200824Z 13005KT M01/M05 A3028 RMK A01 T10101054  RH  072%=      5-min Rain = 0
KTAS 200825Z 14004KT M01/M05 A3028 RMK A01 T10101054  RH  073%=      5-min Rain = 0
KTAS 200826Z 16004KT M01/M05 A3029 RMK A01 T10111053  RH  073%=      5-min Rain = 0
KTAS 200827Z 16004KT M01/M06 A3029 RMK A01 T10121055  RH  073%=      5-min Rain = 0
KTAS 200828Z 15004KT M01/M06 A3029 RMK A01 T10141056  RH  073%=      5-min Rain = 0
KTAS 200829Z 16004KT M02/M06 A3029 RMK A01 T10161058  RH  073%=      5-min Rain = 0
KTAS 200830Z 17005KT M02/M06 A3028 RMK A01 T10171058  RH  074%=      5-min Rain = 0
KTAS 200831Z 18004KT M02/M06 A3028 RMK A01 T10171056  RH  074%=      5-min Rain = 0
KTAS 200832Z 18004KT M02/M06 A3028 RMK A01 T10171057  RH  075%=      5-min Rain = 0
KTAS 200833Z 17004KT M02/M06 A3028 RMK A01 T10181056  RH  075%=      5-min Rain = 0
KTAS 200834Z 16005KT M02/M06 A3028 RMK A01 T10181056  RH  075%=      5-min Rain = 0
KTAS 200835Z 16005KT M02/M06 A3028 RMK A01 T10181056  RH  075%=      5-min Rain = 0
KTAS 200836Z 16004KT M02/M06 A3028 RMK A01 T10171055  RH  075%=      5-min Rain = 0
KTAS 200837Z 16004KT M02/M06 A3028 RMK A01 T10171055  RH  075%=      5-min Rain = 0
KTAS 200838Z 16005KT M02/M05 A3028 RMK A01 T10161054  RH  075%=      5-min Rain = 0
KTAS 200839Z 16005KT M02/M05 A3028 RMK A01 T10161054  RH  075%=      5-min Rain = 0
KTAS 200840Z 16005KT M02/M06 A3028 RMK A01 T10161055  RH  075%=      5-min Rain = 0
KTAS 200841Z 17005KT M02/M06 A3028 RMK A01 T10171056  RH  075%=      5-min Rain = 0
KTAS 200842Z 16005KT M02/M06 A3028 RMK A01 T10181057  RH  075%=      5-min Rain = 0
KTAS 200843Z 17005KT M02/M06 A3028 RMK A01 T10191058  RH  075%=      5-min Rain = 0
KTAS 200844Z 17004KT M02/M06 A3028 RMK A01 T10201059  RH  075%=      5-min Rain = 0
KTAS 200845Z 17004KT M02/M06 A3028 RMK A01 T10201059  RH  075%=      5-min Rain = 0
KTAS 200846Z 17004KT M02/M06 A3028 RMK A01 T10211060  RH  075%=      5-min Rain = 0
KTAS 200847Z 17004KT M02/M06 A3028 RMK A01 T10231062  RH  075%=      5-min Rain = 0
KTAS 200848Z 17004KT M02/M06 A3028 RMK A01 T10241062  RH  075%=      5-min Rain = 0
KTAS 200849Z 17003KT M03/M06 A3028 RMK A01 T10251063  RH  075%=      5-min Rain = 0
KTAS 200850Z 17004KT M03/M06 A3028 RMK A01 T10251062  RH  076%=      5-min Rain = 0
KTAS 200851Z 17004KT M02/M06 A3028 RMK A01 T10241061  RH  076%=      5-min Rain = 0
KTAS 200852Z 17004KT M02/M06 A3028 RMK A01 T10241061  RH  076%=      5-min Rain = 0
KTAS 200853Z 18005KT M03/M06 A3028 RMK A01 T10251062  RH  076%=      5-min Rain = 0
KTAS 200854Z 18004KT M03/M06 A3028 RMK A01 T10261062  RH  076%=      5-min Rain = 0
KTAS 200855Z 19004KT M03/M06 A3028 RMK A01 T10271064  RH  076%=      5-min Rain = 0
KTAS 200856Z 19005KT M03/M07 A3028 RMK A01 T10291065  RH  076%=      5-min Rain = 0
KTAS 200857Z 18006KT M03/M07 A3028 RMK A01 T10301065  RH  076%=      5-min Rain = 0
KTAS 200858Z 18006KT M03/M07 A3028 RMK A01 T10301065  RH  077%=      5-min Rain = 0
KTAS 200859Z 18006KT M03/M07 A3028 RMK A01 T10311065  RH  077%=      5-min Rain = 0
KTAS 200900Z 19006KT M03/M07 A3028 RMK A01 T10311065  RH  077%=      5-min Rain = 0
KTAS 200901Z 18007KT M03/M07 A3028 RMK A01 T10311065  RH  078%=      5-min Rain = 0
KTAS 200902Z 18007KT M03/M07 A3028 RMK A01 T10311065  RH  078%=      5-min Rain = 0
KTAS 200903Z 18006KT M03/M06 A3028 RMK A01 T10321064  RH  078%=      5-min Rain = 0
KTAS 200904Z 18007KT M03/M06 A3028 RMK A01 T10321064  RH  078%=      5-min Rain = 0
KTAS 200905Z 18007KT M03/M06 A3028 RMK A01 T10321064  RH  079%=      5-min Rain = 0
KTAS 200906Z 18006KT M03/M06 A3028 RMK A01 T10321063  RH  079%=      5-min Rain = 0
KTAS 200907Z 18006KT M03/M06 A3029 RMK A01 T10311062  RH  079%=      5-min Rain = 0
KTAS 200908Z 18005KT M03/M06 A3029 RMK A01 T10311062  RH  079%=      5-min Rain = 0
KTAS 200909Z 18005KT M03/M06 A3029 RMK A01 T10311062  RH  079%=      5-min Rain = 0
KTAS 200910Z 18005KT M03/M06 A3029 RMK A01 T10321063  RH  079%=      5-min Rain = 0
KTAS 200911Z 18003KT M03/M06 A3029 RMK A01 T10331063  RH  079%=      5-min Rain = 0
KTAS 200912Z 16003KT M03/M06 A3029 RMK A01 T10331063  RH  080%=      5-min Rain = 0
KTAS 200913Z 16003KT M03/M06 A3029 RMK A01 T10321062  RH  080%=      5-min Rain = 0
KTAS 200914Z 15003KT M03/M06 A3029 RMK A01 T10321061  RH  080%=      5-min Rain = 0
KTAS 200915Z 15003KT M03/M06 A3029 RMK A01 T10301059  RH  080%=      5-min Rain = 0
KTAS 200916Z 15002KT M03/M06 A3029 RMK A01 T10291058  RH  080%=      5-min Rain = 0
KTAS 200917Z 14002KT M03/M06 A3029 RMK A01 T10291058  RH  080%=      5-min Rain = 0
KTAS 200918Z 16002KT M03/M06 A3029 RMK A01 T10281057  RH  080%=      5-min Rain = 0
KTAS 200919Z 16003KT M03/M06 A3029 RMK A01 T10271055  RH  081%=      5-min Rain = 0
KTAS 200920Z 16004KT M02/M05 A3029 RMK A01 T10241053  RH  081%=      5-min Rain = 0
KTAS 200921Z 16005KT M02/M05 A3029 RMK A01 T10221051  RH  081%=      5-min Rain = 0
KTAS 200922Z 16004KT M02/M05 A3029 RMK A01 T10211050  RH  080%=      5-min Rain = 0
KTAS 200923Z 16004KT M02/M05 A3029 RMK A01 T10211051  RH  080%=      5-min Rain = 0
KTAS 200924Z 15003KT M02/M05 A3029 RMK A01 T10211052  RH  080%=      5-min Rain = 0
KTAS 200925Z 14003KT M02/M05 A3029 RMK A01 T10211052  RH  079%=      5-min Rain = 0
KTAS 200926Z 13004KT M02/M05 A3029 RMK A01 T10211053  RH  079%=      5-min Rain = 0
KTAS 200927Z 15004KT M02/M05 A3029 RMK A01 T10221054  RH  079%=      5-min Rain = 0
KTAS 200928Z 15004KT M02/M06 A3029 RMK A01 T10231055  RH  079%=      5-min Rain = 0
KTAS 200929Z 15004KT M02/M06 A3029 RMK A01 T10241056  RH  078%=      5-min Rain = 0
KTAS 200930Z 14004KT M02/M06 A3029 RMK A01 T10241056  RH  078%=      5-min Rain = 0
KTAS 200931Z 15003KT M02/M06 A3029 RMK A01 T10241056  RH  078%=      5-min Rain = 0
KTAS 200932Z 14002KT M02/M06 A3029 RMK A01 T10241057  RH  078%=      5-min Rain = 0
KTAS 200933Z 14002KT M02/M06 A3029 RMK A01 T10241056  RH  078%=      5-min Rain = 0
KTAS 200934Z 13002KT M02/M06 A3029 RMK A01 T10241056  RH  078%=      5-min Rain = 0
KTAS 200935Z 13002KT M02/M06 A3029 RMK A01 T10241057  RH  078%=      5-min Rain = 0
KTAS 200936Z 11002KT M03/M06 A3029 RMK A01 T10251057  RH  078%=      5-min Rain = 0
KTAS 200937Z 13003KT M03/M06 A3029 RMK A01 T10251057  RH  078%=      5-min Rain = 0
KTAS 200938Z 13003KT M03/M06 A3029 RMK A01 T10261058  RH  078%=      5-min Rain = 0
KTAS 200939Z 13004KT M03/M06 A3029 RMK A01 T10271059  RH  078%=      5-min Rain = 0
KTAS 200940Z 13004KT M03/M06 A3029 RMK A01 T10271060  RH  078%=      5-min Rain = 0
KTAS 200941Z 13004KT M03/M06 A3029 RMK A01 T10271059  RH  079%=      5-min Rain = 0
KTAS 200942Z 14003KT M03/M06 A3029 RMK A01 T10281059  RH  079%=      5-min Rain = 0
KTAS 200943Z 14003KT M03/M06 A3029 RMK A01 T10281059  RH  079%=      5-min Rain = 0
KTAS 200944Z 14003KT M03/M06 A3029 RMK A01 T10281059  RH  079%=      5-min Rain = 0
KTAS 200945Z 14003KT M03/M06 A3029 RMK A01 T10281059  RH  079%=      5-min Rain = 0
KTAS 200946Z 13003KT M03/M06 A3029 RMK A01 T10271058  RH  079%=      5-min Rain = 0
KTAS 200947Z 13003KT M03/M06 A3029 RMK A01 T10271058  RH  079%=      5-min Rain = 0
KTAS 200948Z 12002KT M03/M06 A3029 RMK A01 T10271058  RH  079%=      5-min Rain = 0
KTAS 200949Z 12002KT M03/M06 A3029 RMK A01 T10271058  RH  079%=      5-min Rain = 0
KTAS 200950Z 12002KT M03/M06 A3029 RMK A01 T10271058  RH  080%=      5-min Rain = 0
KTAS 200951Z 13002KT M03/M06 A3029 RMK A01 T10271058  RH  080%=      5-min Rain = 0
KTAS 200952Z 14002KT M03/M06 A3029 RMK A01 T10281058  RH  080%=      5-min Rain = 0
KTAS 200953Z 13003KT M03/M06 A3029 RMK A01 T10281058  RH  080%=      5-min Rain = 0
KTAS 200954Z 13003KT M03/M06 A3029 RMK A01 T10281058  RH  080%=      5-min Rain = 0
KTAS 200955Z 14003KT M03/M06 A3029 RMK A01 T10271057  RH  080%=      5-min Rain = 0
KTAS 200956Z 14004KT M03/M06 A3029 RMK A01 T10271057  RH  080%=      5-min Rain = 0
KTAS 200957Z 14003KT M03/M06 A3029 RMK A01 T10271057  RH  080%=      5-min Rain = 0
KTAS 200958Z 14003KT M03/M06 A3028 RMK A01 T10271056  RH  080%=      5-min Rain = 0
KTAS 200959Z 13004KT M03/M06 A3028 RMK A01 T10261056  RH  080%=      5-min Rain = 0
KTAS 201000Z 14004KT M03/M06 A3028 RMK A01 T10261056  RH  080%=      5-min Rain = 0
KTAS 201001Z 14006KT M03/M06 A3028 RMK A01 T10271056  RH  080%=      5-min Rain = 0
KTAS 201002Z 13006KT M03/M06 A3028 RMK A01 T10271056  RH  080%=      5-min Rain = 0
KTAS 201003Z 14006KT M03/M06 A3028 RMK A01 T10261055  RH  081%=      5-min Rain = 0
KTAS 201004Z 14005KT M03/M05 A3028 RMK A01 T10251054  RH  081%=      5-min Rain = 0
KTAS 201005Z 14005KT M02/M05 A3028 RMK A01 T10241053  RH  081%=      5-min Rain = 0
KTAS 201006Z 14005KT M02/M05 A3028 RMK A01 T10241052  RH  081%=      5-min Rain = 0
KTAS 201007Z 14005KT M02/M05 A3028 RMK A01 T10221051  RH  081%=      5-min Rain = 0
KTAS 201008Z 14005KT M02/M05 A3028 RMK A01 T10221050  RH  081%=      5-min Rain = 0
KTAS 201009Z 14006KT M02/M05 A3028 RMK A01 T10211050  RH  081%=      5-min Rain = 0
KTAS 201010Z 14006KT M02/M05 A3028 RMK A01 T10211050  RH  080%=      5-min Rain = 0
KTAS 201011Z 14006KT M02/M05 A3028 RMK A01 T10211051  RH  080%=      5-min Rain = 0
KTAS 201012Z 13007KT M02/M05 A3028 RMK A01 T10221052  RH  080%=      5-min Rain = 0
KTAS 201013Z 13007KT M02/M05 A3028 RMK A01 T10221052  RH  080%=      5-min Rain = 0
KTAS 201014Z 13006KT M02/M05 A3028 RMK A01 T10221052  RH  080%=      5-min Rain = 0
KTAS 201015Z 13006KT M02/M05 A3028 RMK A01 T10231053  RH  080%=      5-min Rain = 0
KTAS 201016Z 14006KT M02/M05 A3028 RMK A01 T10231053  RH  080%=      5-min Rain = 0
KTAS 201017Z 14006KT M02/M05 A3028 RMK A01 T10221052  RH  080%=      5-min Rain = 0
KTAS 201018Z 14006KT M02/M05 A3028 RMK A01 T10221052  RH  080%=      5-min Rain = 0
KTAS 201019Z 14006KT M02/M05 A3028 RMK A01 T10221052  RH  080%=      5-min Rain = 0
KTAS 201020Z 14006KT M02/M05 A3028 RMK A01 T10221052  RH  080%=      5-min Rain = 0
KTAS 201021Z 13006KT M02/M05 A3028 RMK A01 T10221052  RH  080%=      5-min Rain = 0
KTAS 201022Z 13006KT M02/M05 A3028 RMK A01 T10211051  RH  080%=      5-min Rain = 0
KTAS 201023Z 13006KT M02/M05 A3028 RMK A01 T10211051  RH  080%=      5-min Rain = 0
KTAS 201024Z 13005KT M02/M05 A3028 RMK A01 T10221052  RH  080%=      5-min Rain = 0
KTAS 201025Z 11003KT M02/M05 A3028 RMK A01 T10241054  RH  080%=      5-min Rain = 0
KTAS 201026Z 11004KT M03/M06 A3028 RMK A01 T10251056  RH  080%=      5-min Rain = 0
KTAS 201027Z 10004KT M03/M06 A3027 RMK A01 T10251055  RH  080%=      5-min Rain = 0
KTAS 201028Z 11003KT M03/M06 A3027 RMK A01 T10251055  RH  080%=      5-min Rain = 0
KTAS 201029Z 11003KT M03/M06 A3027 RMK A01 T10261055  RH  080%=      5-min Rain = 0
KTAS 201030Z 11003KT M03/M05 A3027 RMK A01 T10251054  RH  080%=      5-min Rain = 0
KTAS 201031Z 10004KT M03/M05 A3027 RMK A01 T10251054  RH  081%=      5-min Rain = 0
KTAS 201032Z 11005KT M03/M05 A3027 RMK A01 T10251054  RH  081%=      5-min Rain = 0
KTAS 201033Z 11005KT M03/M05 A3027 RMK A01 T10251054  RH  081%=      5-min Rain = 0
KTAS 201034Z 11004KT M03/M05 A3027 RMK A01 T10251053  RH  081%=      5-min Rain = 0
KTAS 201035Z 11004KT M03/M05 A3027 RMK A01 T10251053  RH  081%=      5-min Rain = 0
KTAS 201036Z 12005KT M03/M05 A3027 RMK A01 T10251053  RH  081%=      5-min Rain = 0
KTAS 201037Z 12005KT M03/M05 A3027 RMK A01 T10251053  RH  081%=      5-min Rain = 0
KTAS 201038Z 12006KT M03/M05 A3027 RMK A01 T10251053  RH  081%=      5-min Rain = 0
KTAS 201039Z 12005KT M03/M05 A3027 RMK A01 T10251053  RH  081%=      5-min Rain = 0
KTAS 201040Z 12006KT M02/M05 A3027 RMK A01 T10241052  RH  081%=      5-min Rain = 0
KTAS 201041Z 13005KT M02/M05 A3027 RMK A01 T10241051  RH  081%=      5-min Rain = 0
KTAS 201042Z 13007KT M02/M05 A3027 RMK A01 T10231051  RH  081%=      5-min Rain = 0
KTAS 201043Z 13007KT M02/M05 A3027 RMK A01 T10231050  RH  081%=      5-min Rain = 0
KTAS 201044Z 12007KT M02/M05 A3027 RMK A01 T10221050  RH  081%=      5-min Rain = 0
KTAS 201045Z 12006KT M02/M05 A3027 RMK A01 T10221051  RH  081%=      5-min Rain = 0
KTAS 201046Z 12006KT M02/M05 A3027 RMK A01 T10231051  RH  081%=      5-min Rain = 0
KTAS 201047Z 12006KT M02/M05 A3027 RMK A01 T10231051  RH  081%=      5-min Rain = 0
KTAS 201048Z 12006KT M02/M05 A3027 RMK A01 T10231051  RH  081%=      5-min Rain = 0
KTAS 201049Z 12007KT M02/M05 A3027 RMK A01 T10221051  RH  081%=      5-min Rain = 0
KTAS 201050Z 12007KT M02/M05 A3027 RMK A01 T10221051  RH  080%=      5-min Rain = 0
KTAS 201051Z 12008KT M02/M05 A3027 RMK A01 T10221051  RH  080%=      5-min Rain = 0
KTAS 201052Z 12007KT M02/M05 A3027 RMK A01 T10221052  RH  080%=      5-min Rain = 0
KTAS 201053Z 12008KT M02/M05 A3027 RMK A01 T10221052  RH  080%=      5-min Rain = 0
KTAS 201054Z 13007KT M02/M05 A3027 RMK A01 T10221053  RH  079%=      5-min Rain = 0
KTAS 201055Z 13007KT M02/M05 A3027 RMK A01 T10221053  RH  079%=      5-min Rain = 0
KTAS 201056Z 12007KT M02/M05 A3027 RMK A01 T10211053  RH  079%=      5-min Rain = 0
KTAS 201057Z 13008KT M02/M05 A3027 RMK A01 T10221054  RH  078%=      5-min Rain = 0
KTAS 201058Z 13008KT M02/M05 A3027 RMK A01 T10211054  RH  078%=      5-min Rain = 0
KTAS 201059Z 13008KT M02/M06 A3027 RMK A01 T10211055  RH  078%=      5-min Rain = 0
KTAS 201100Z 13008KT M02/M06 A3027 RMK A01 T10211056  RH  077%=      5-min Rain = 0
KTAS 201101Z 13008KT M02/M06 A3027 RMK A01 T10221056  RH  077%=      5-min Rain = 0
KTAS 201102Z 13008KT M02/M06 A3027 RMK A01 T10221057  RH  077%=      5-min Rain = 0
KTAS 201103Z 13008KT M02/M06 A3027 RMK A01 T10221057  RH  077%=      5-min Rain = 0
KTAS 201104Z 13008KT M02/M06 A3027 RMK A01 T10221058  RH  077%=      5-min Rain = 0
KTAS 201105Z 13008KT M02/M06 A3027 RMK A01 T10221058  RH  076%=      5-min Rain = 0
KTAS 201106Z 13008KT M02/M06 A3027 RMK A01 T10221058  RH  076%=      5-min Rain = 0
KTAS 201107Z 13008KT M02/M06 A3027 RMK A01 T10221059  RH  076%=      5-min Rain = 0
KTAS 201108Z 14008KT M02/M06 A3026 RMK A01 T10221059  RH  076%=      5-min Rain = 0
KTAS 201109Z 13008KT M02/M06 A3026 RMK A01 T10221060  RH  075%=      5-min Rain = 0
KTAS 201110Z 13008KT M02/M06 A3026 RMK A01 T10221060  RH  075%=      5-min Rain = 0
KTAS 201111Z 13008KT M02/M06 A3026 RMK A01 T10221060  RH  075%=      5-min Rain = 0
KTAS 201112Z 13008KT M02/M06 A3026 RMK A01 T10221061  RH  075%=      5-min Rain = 0
KTAS 201113Z 13008KT M02/M06 A3026 RMK A01 T10221061  RH  075%=      5-min Rain = 0
KTAS 201114Z 13008KT M02/M06 A3026 RMK A01 T10221061  RH  075%=      5-min Rain = 0
KTAS 201115Z 13008KT M02/M06 A3026 RMK A01 T10231062  RH  074%=      5-min Rain = 0
KTAS 201116Z 13008KT M02/M06 A3026 RMK A01 T10231062  RH  074%=      5-min Rain = 0
KTAS 201117Z 14008KT M02/M06 A3026 RMK A01 T10231063  RH  074%=      5-min Rain = 0
KTAS 201118Z 13008KT M02/M06 A3026 RMK A01 T10231063  RH  074%=      5-min Rain = 0
KTAS 201119Z 14008KT M02/M06 A3026 RMK A01 T10231063  RH  074%=      5-min Rain = 0
KTAS 201120Z 14008KT M02/M06 A3026 RMK A01 T10231063  RH  074%=      5-min Rain = 0
KTAS 201121Z 14008KT M02/M06 A3026 RMK A01 T10231063  RH  074%=      5-min Rain = 0
KTAS 201122Z 14008KT M02/M06 A3026 RMK A01 T10231064  RH  073%=      5-min Rain = 0
KTAS 201123Z 14008KT M02/M06 A3026 RMK A01 T10221064  RH  073%=      5-min Rain = 0
KTAS 201124Z 14008KT M02/M06 A3026 RMK A01 T10221064  RH  073%=      5-min Rain = 0
KTAS 201125Z 14007KT M02/M06 A3026 RMK A01 T10221064  RH  073%=      5-min Rain = 0
KTAS 201126Z 14007KT M02/M07 A3026 RMK A01 T10221065  RH  072%=      5-min Rain = 0
KTAS 201127Z 14006KT M02/M07 A3026 RMK A01 T10221066  RH  072%=      5-min Rain = 0
KTAS 201128Z 14006KT M02/M07 A3026 RMK A01 T10221065  RH  072%=      5-min Rain = 0
KTAS 201129Z 14006KT M02/M07 A3026 RMK A01 T10221066  RH  072%=      5-min Rain = 0
KTAS 201130Z 14007KT M02/M07 A3026 RMK A01 T10221066  RH  072%=      5-min Rain = 0
KTAS 201131Z 14008KT M02/M07 A3026 RMK A01 T10221066  RH  072%=      5-min Rain = 0
KTAS 201132Z 14007KT M02/M07 A3026 RMK A01 T10211065  RH  072%=      5-min Rain = 0
KTAS 201133Z 15007KT M02/M07 A3026 RMK A01 T10211066  RH  071%=      5-min Rain = 0
KTAS 201134Z 15006KT M02/M07 A3026 RMK A01 T10211066  RH  071%=      5-min Rain = 0
KTAS 201135Z 14006KT M02/M07 A3026 RMK A01 T10211066  RH  071%=      5-min Rain = 0
KTAS 201136Z 14005KT M02/M07 A3026 RMK A01 T10211067  RH  071%=      5-min Rain = 0
KTAS 201137Z 14005KT M02/M07 A3026 RMK A01 T10211067  RH  071%=      5-min Rain = 0
KTAS 201138Z 14005KT M02/M07 A3026 RMK A01 T10211067  RH  071%=      5-min Rain = 0
KTAS 201139Z 14005KT M02/M07 A3026 RMK A01 T10211067  RH  071%=      5-min Rain = 0
KTAS 201140Z 14005KT M02/M07 A3026 RMK A01 T10201067  RH  071%=      5-min Rain = 0
KTAS 201141Z 14005KT M02/M07 A3026 RMK A01 T10201067  RH  070%=      5-min Rain = 0
KTAS 201142Z 15006KT M02/M07 A3026 RMK A01 T10201067  RH  070%=      5-min Rain = 0
KTAS 201143Z 14006KT M02/M07 A3026 RMK A01 T10201067  RH  070%=      5-min Rain = 0
KTAS 201144Z 14005KT M02/M07 A3026 RMK A01 T10201067  RH  070%=      5-min Rain = 0
KTAS 201145Z 14006KT M02/M07 A3026 RMK A01 T10201067  RH  070%=      5-min Rain = 0
KTAS 201146Z 15006KT M02/M07 A3025 RMK A01 T10201067  RH  070%=      5-min Rain = 0
KTAS 201147Z 14006KT M02/M07 A3025 RMK A01 T10201067  RH  070%=      5-min Rain = 0
KTAS 201148Z 14006KT M02/M07 A3025 RMK A01 T10201067  RH  070%=      5-min Rain = 0
KTAS 201149Z 15006KT M02/M07 A3025 RMK A01 T10201067  RH  070%=      5-min Rain = 0
KTAS 201150Z 14007KT M02/M07 A3025 RMK A01 T10201067  RH  070%=      5-min Rain = 0
KTAS 201151Z 14006KT M02/M07 A3025 RMK A01 T10201066  RH  071%=      5-min Rain = 0
KTAS 201152Z 14007KT M02/M07 A3025 RMK A01 T10201067  RH  071%=      5-min Rain = 0
KTAS 201153Z 14007KT M02/M07 A3025 RMK A01 T10211067  RH  071%=      5-min Rain = 0
KTAS 201154Z 14007KT M02/M07 A3025 RMK A01 T10211067  RH  071%=      5-min Rain = 0
KTAS 201155Z 14007KT M02/M07 A3025 RMK A01 T10221067  RH  071%=      5-min Rain = 0
KTAS 201156Z 13007KT M02/M07 A3025 RMK A01 T10221067  RH  071%=      5-min Rain = 0
KTAS 201157Z 13007KT M02/M07 A3025 RMK A01 T10221067  RH  071%=      5-min Rain = 0
KTAS 201158Z 14007KT M02/M07 A3025 RMK A01 T10221067  RH  071%=      5-min Rain = 0
KTAS 201159Z 13007KT M02/M07 A3025 RMK A01 T10231068  RH  071%=      5-min Rain = 0
KTAS 201200Z 13008KT M02/M07 A3025 RMK A01 T10231068  RH  072%=      5-min Rain = 0
KTAS 201201Z 13008KT M02/M07 A3025 RMK A01 T10231068  RH  072%=      5-min Rain = 0
KTAS 201202Z 13008KT M02/M07 A3025 RMK A01 T10241068  RH  072%=      5-min Rain = 0
KTAS 201203Z 13008KT M02/M07 A3025 RMK A01 T10241067  RH  072%=      5-min Rain = 0
KTAS 201204Z 13008KT M02/M07 A3025 RMK A01 T10241067  RH  072%=      5-min Rain = 0
KTAS 201205Z 14008KT M02/M07 A3025 RMK A01 T10241067  RH  072%=      5-min Rain = 0
KTAS 201206Z 14008KT M02/M07 A3025 RMK A01 T10241067  RH  072%=      5-min Rain = 0
KTAS 201207Z 13008KT M02/M07 A3025 RMK A01 T10241067  RH  072%=      5-min Rain = 0
KTAS 201208Z 14008KT M02/M07 A3025 RMK A01 T10241067  RH  072%=      5-min Rain = 0
KTAS 201209Z 14007KT M02/M07 A3025 RMK A01 T10231067  RH  072%=      5-min Rain = 0
KTAS 201210Z 14008KT M02/M07 A3025 RMK A01 T10241067  RH  072%=      5-min Rain = 0
KTAS 201211Z 14008KT M02/M07 A3025 RMK A01 T10241067  RH  072%=      5-min Rain = 0
KTAS 201212Z 14008KT M02/M07 A3025 RMK A01 T10231067  RH  072%=      5-min Rain = 0
KTAS 201213Z 14008KT M02/M07 A3025 RMK A01 T10231067  RH  072%=      5-min Rain = 0
KTAS 201214Z 14008KT M02/M07 A3025 RMK A01 T10231067  RH  072%=      5-min Rain = 0
KTAS 201215Z 14008KT M02/M07 A3025 RMK A01 T10221067  RH  071%=      5-min Rain = 0
KTAS 201216Z 14008KT M02/M07 A3025 RMK A01 T10221067  RH  071%=      5-min Rain = 0
KTAS 201217Z 14008KT M02/M07 A3025 RMK A01 T10221068  RH  071%=      5-min Rain = 0
KTAS 201218Z 14008KT M02/M07 A3025 RMK A01 T10221068  RH  071%=      5-min Rain = 0
KTAS 201219Z 14008KT M02/M07 A3025 RMK A01 T10221068  RH  071%=      5-min Rain = 0
KTAS 201220Z 14007KT M02/M07 A3025 RMK A01 T10221068  RH  071%=      5-min Rain = 0
KTAS 201221Z 14007KT M02/M07 A3025 RMK A01 T10221068  RH  071%=      5-min Rain = 0
KTAS 201222Z 14007KT M02/M07 A3025 RMK A01 T10221068  RH  071%=      5-min Rain = 0
KTAS 201223Z 14007KT M02/M07 A3025 RMK A01 T10221068  RH  071%=      5-min Rain = 0
KTAS 201224Z 14007KT M02/M07 A3025 RMK A01 T10221068  RH  071%=      5-min Rain = 0
KTAS 201225Z 13008KT M02/M07 A3025 RMK A01 T10221069  RH  071%=      5-min Rain = 0
KTAS 201226Z 13007KT M02/M07 A3025 RMK A01 T10221069  RH  071%=      5-min Rain = 0
KTAS 201227Z 13007KT M02/M07 A3025 RMK A01 T10231069  RH  071%=      5-min Rain = 0
KTAS 201228Z 13007KT M02/M07 A3025 RMK A01 T10231069  RH  071%=      5-min Rain = 0
KTAS 201229Z 14007KT M02/M07 A3025 RMK A01 T10231069  RH  071%=      5-min Rain = 0
KTAS 201230Z 14007KT M02/M07 A3025 RMK A01 T10231069  RH  071%=      5-min Rain = 0
KTAS 201231Z 13007KT M02/M07 A3025 RMK A01 T10231069  RH  071%=      5-min Rain = 0
KTAS 201232Z 14008KT M02/M07 A3025 RMK A01 T10231069  RH  071%=      5-min Rain = 0
KTAS 201233Z 13007KT M02/M07 A3025 RMK A01 T10231069  RH  071%=      5-min Rain = 0
KTAS 201234Z 14007KT M02/M07 A3025 RMK A01 T10241069  RH  071%=      5-min Rain = 0
KTAS 201235Z 14007KT M02/M07 A3025 RMK A01 T10241069  RH  071%=      5-min Rain = 0
KTAS 201236Z 14007KT M02/M07 A3025 RMK A01 T10241069  RH  071%=      5-min Rain = 0
KTAS 201237Z 14007KT M02/M07 A3025 RMK A01 T10231069  RH  071%=      5-min Rain = 0
KTAS 201238Z 14006KT M02/M07 A3025 RMK A01 T10231069  RH  071%=      5-min Rain = 0
KTAS 201239Z 14007KT M02/M07 A3025 RMK A01 T10231069  RH  071%=      5-min Rain = 0
KTAS 201240Z 14007KT M02/M07 A3025 RMK A01 T10231070  RH  071%=      5-min Rain = 0
KTAS 201241Z 14007KT M02/M07 A3025 RMK A01 T10231070  RH  071%=      5-min Rain = 0
KTAS 201242Z 14006KT M02/M07 A3025 RMK A01 T10241070  RH  071%=      5-min Rain = 0
KTAS 201243Z 15006KT M02/M07 A3025 RMK A01 T10241070  RH  071%=      5-min Rain = 0
KTAS 201244Z 14005KT M02/M07 A3025 RMK A01 T10241070  RH  071%=      5-min Rain = 0
KTAS 201245Z 15006KT M02/M07 A3025 RMK A01 T10241070  RH  071%=      5-min Rain = 0
KTAS 201246Z 15006KT M02/M07 A3025 RMK A01 T10241070  RH  071%=      5-min Rain = 0
KTAS 201247Z 15005KT M02/M07 A3025 RMK A01 T10241070  RH  071%=      5-min Rain = 0
KTAS 201248Z 15005KT M02/M07 A3025 RMK A01 T10241070  RH  071%=      5-min Rain = 0
KTAS 201249Z 15005KT M02/M07 A3025 RMK A01 T10241070  RH  071%=      5-min Rain = 0
KTAS 201250Z 15005KT M02/M07 A3025 RMK A01 T10241070  RH  071%=      5-min Rain = 0
KTAS 201251Z 15004KT M03/M07 A3025 RMK A01 T10251070  RH  071%=      5-min Rain = 0
KTAS 201252Z 15004KT M03/M07 A3024 RMK A01 T10251071  RH  071%=      5-min Rain = 0
KTAS 201253Z 15004KT M03/M07 A3024 RMK A01 T10251071  RH  071%=      5-min Rain = 0
KTAS 201254Z 15004KT M03/M07 A3024 RMK A01 T10251071  RH  071%=      5-min Rain = 0
KTAS 201255Z 15004KT M03/M07 A3024 RMK A01 T10261071  RH  071%=      5-min Rain = 0
KTAS 201256Z 15005KT M03/M07 A3024 RMK A01 T10261071  RH  071%=      5-min Rain = 0
KTAS 201257Z 15005KT M03/M07 A3024 RMK A01 T10261070  RH  071%=      5-min Rain = 0
KTAS 201258Z 15006KT M03/M07 A3024 RMK A01 T10251070  RH  071%=      5-min Rain = 0
KTAS 201259Z 15005KT M03/M07 A3024 RMK A01 T10251070  RH  071%=      5-min Rain = 0
KTAS 201300Z 15005KT M03/M07 A3024 RMK A01 T10251070  RH  071%=      5-min Rain = 0
KTAS 201301Z 15004KT M03/M07 A3024 RMK A01 T10251070  RH  071%=      5-min Rain = 0
KTAS 201302Z 16004KT M03/M07 A3024 RMK A01 T10261071  RH  071%=      5-min Rain = 0
KTAS 201303Z 16005KT M03/M07 A3024 RMK A01 T10261071  RH  071%=      5-min Rain = 0
KTAS 201304Z 16005KT M03/M07 A3024 RMK A01 T10271072  RH  071%=      5-min Rain = 0
KTAS 201305Z 16005KT M03/M07 A3024 RMK A01 T10271072  RH  072%=      5-min Rain = 0
KTAS 201306Z 16005KT M03/M07 A3024 RMK A01 T10281072  RH  072%=      5-min Rain = 0
KTAS 201307Z 16004KT M03/M07 A3024 RMK A01 T10281072  RH  072%=      5-min Rain = 0
KTAS 201308Z 15004KT M03/M07 A3024 RMK A01 T10281072  RH  072%=      5-min Rain = 0
KTAS 201309Z 14004KT M03/M07 A3024 RMK A01 T10281072  RH  072%=      5-min Rain = 0
KTAS 201310Z 15004KT M03/M07 A3024 RMK A01 T10281071  RH  072%=      5-min Rain = 0
KTAS 201311Z 16004KT M03/M07 A3024 RMK A01 T10281072  RH  072%=      5-min Rain = 0
KTAS 201312Z 17004KT M03/M07 A3024 RMK A01 T10281072  RH  072%=      5-min Rain = 0
KTAS 201313Z 16005KT M03/M07 A3024 RMK A01 T10281073  RH  072%=      5-min Rain = 0
KTAS 201314Z 16004KT M03/M07 A3024 RMK A01 T10291073  RH  072%=      5-min Rain = 0
KTAS 201315Z 16004KT M03/M07 A3024 RMK A01 T10301073  RH  072%=      5-min Rain = 0
KTAS 201316Z 16004KT M03/M07 A3024 RMK A01 T10301074  RH  072%=      5-min Rain = 0
KTAS 201317Z 16004KT M03/M07 A3024 RMK A01 T10311074  RH  072%=      5-min Rain = 0
KTAS 201318Z 17005KT M03/M07 A3024 RMK A01 T10311074  RH  072%=      5-min Rain = 0
KTAS 201319Z 16004KT M03/M07 A3024 RMK A01 T10321074  RH  072%=      5-min Rain = 0
KTAS 201320Z 17005KT M03/M08 A3024 RMK A01 T10321075  RH  073%=      5-min Rain = 0
KTAS 201321Z 16005KT M03/M08 A3024 RMK A01 T10331075  RH  073%=      5-min Rain = 0
KTAS 201322Z 16005KT M03/M08 A3024 RMK A01 T10331075  RH  073%=      5-min Rain = 0
KTAS 201323Z 15003KT M03/M07 A3024 RMK A01 T10331074  RH  073%=      5-min Rain = 0
KTAS 201324Z 16004KT M03/M07 A3024 RMK A01 T10331074  RH  073%=      5-min Rain = 0
KTAS 201325Z 15004KT M03/M07 A3024 RMK A01 T10331074  RH  073%=      5-min Rain = 0
KTAS 201326Z 15004KT M03/M07 A3024 RMK A01 T10331074  RH  073%=      5-min Rain = 0
KTAS 201327Z 15003KT M03/M07 A3024 RMK A01 T10331074  RH  073%=      5-min Rain = 0
KTAS 201328Z 16004KT M03/M07 A3024 RMK A01 T10331073  RH  073%=      5-min Rain = 0
KTAS 201329Z 16005KT M03/M07 A3024 RMK A01 T10331074  RH  073%=      5-min Rain = 0
KTAS 201330Z 17007KT M03/M07 A3024 RMK A01 T10341074  RH  073%=      5-min Rain = 0
KTAS 201331Z 17007KT M03/M08 A3024 RMK A01 T10341075  RH  074%=      5-min Rain = 0
KTAS 201332Z 18007KT M04/M08 A3024 RMK A01 T10351075  RH  074%=      5-min Rain = 0
KTAS 201333Z 18007KT M04/M08 A3024 RMK A01 T10351075  RH  074%=      5-min Rain = 0
KTAS 201334Z 17008KT M04/M07 A3024 RMK A01 T10351074  RH  074%=      5-min Rain = 0
KTAS 201335Z 18008KT M04/M07 A3024 RMK A01 T10351074  RH  075%=      5-min Rain = 0
KTAS 201336Z 18007KT M04/M07 A3024 RMK A01 T10361074  RH  075%=      5-min Rain = 0
KTAS 201337Z 18007KT M04/M07 A3024 RMK A01 T10361074  RH  075%=      5-min Rain = 0
KTAS 201338Z 18007KT M04/M07 A3024 RMK A01 T10361074  RH  075%=      5-min Rain = 0
KTAS 201339Z 18007KT M04/M07 A3024 RMK A01 T10371074  RH  075%=      5-min Rain = 0
KTAS 201340Z 18008KT M04/M07 A3024 RMK A01 T10371074  RH  075%=      5-min Rain = 0
KTAS 201341Z 18008KT M04/M07 A3025 RMK A01 T10371074  RH  076%=      5-min Rain = 0
KTAS 201342Z 18008KT M04/M07 A3025 RMK A01 T10371074  RH  076%=      5-min Rain = 0
KTAS 201343Z 19007KT M04/M07 A3025 RMK A01 T10371074  RH  076%=      5-min Rain = 0
KTAS 201344Z 19007KT M04/M07 A3025 RMK A01 T10381074  RH  076%=      5-min Rain = 0
KTAS 201345Z 19008KT M04/M07 A3025 RMK A01 T10391074  RH  076%=      5-min Rain = 0
KTAS 201346Z 19007KT M04/M07 A3025 RMK A01 T10391074  RH  076%=      5-min Rain = 0
KTAS 201347Z 19007KT M04/M08 A3025 RMK A01 T10391075  RH  076%=      5-min Rain = 0
KTAS 201348Z 20007KT M04/M08 A3025 RMK A01 T10401075  RH  077%=      5-min Rain = 0
KTAS 201349Z 20006KT M04/M08 A3025 RMK A01 T10411075  RH  077%=      5-min Rain = 0
KTAS 201350Z 20007KT M04/M08 A3025 RMK A01 T10411075  RH  077%=      5-min Rain = 0
KTAS 201351Z 20007KT M04/M08 A3025 RMK A01 T10411075  RH  077%=      5-min Rain = 0
KTAS 201352Z 20006KT M04/M07 A3025 RMK A01 T10401073  RH  078%=      5-min Rain = 0
KTAS 201353Z 20007KT M04/M07 A3025 RMK A01 T10391072  RH  078%=      5-min Rain = 0
KTAS 201354Z 20007KT M04/M07 A3025 RMK A01 T10381070  RH  078%=      5-min Rain = 0
KTAS 201355Z 20007KT M04/M07 A3025 RMK A01 T10371069  RH  078%=      5-min Rain = 0
KTAS 201356Z 20007KT M04/M07 A3025 RMK A01 T10371069  RH  078%=      5-min Rain = 0
KTAS 201357Z 20007KT M04/M07 A3026 RMK A01 T10361069  RH  078%=      5-min Rain = 0
KTAS 201358Z 20007KT M04/M07 A3025 RMK A01 T10361069  RH  078%=      5-min Rain = 0
KTAS 201359Z 20007KT M04/M07 A3025 RMK A01 T10371069  RH  078%=      5-min Rain = 0
KTAS 201400Z 20007KT M04/M07 A3025 RMK A01 T10371070  RH  078%=      5-min Rain = 0
KTAS 201401Z 20007KT M04/M07 A3025 RMK A01 T10371070  RH  078%=      5-min Rain = 0
KTAS 201402Z 20007KT M04/M07 A3025 RMK A01 T10371070  RH  078%=      5-min Rain = 0
KTAS 201403Z 20008KT M04/M07 A3025 RMK A01 T10381070  RH  078%=      5-min Rain = 0
KTAS 201404Z 20007KT M04/M07 A3025 RMK A01 T10371069  RH  078%=      5-min Rain = 0
KTAS 201405Z 20007KT M04/M07 A3025 RMK A01 T10371069  RH  078%=      5-min Rain = 0
KTAS 201406Z 20007KT M04/M07 A3025 RMK A01 T10381070  RH  078%=      5-min Rain = 0
KTAS 201407Z 20007KT M04/M07 A3025 RMK A01 T10381070  RH  078%=      5-min Rain = 0
KTAS 201408Z 20007KT M04/M07 A3025 RMK A01 T10391070  RH  079%=      5-min Rain = 0
KTAS 201409Z 19007KT M04/M07 A3025 RMK A01 T10391070  RH  079%=      5-min Rain = 0
KTAS 201410Z 20007KT M04/M07 A3026 RMK A01 T10391070  RH  079%=      5-min Rain = 0
KTAS 201411Z 20007KT M04/M07 A3026 RMK A01 T10391070  RH  079%=      5-min Rain = 0
KTAS 201412Z 20007KT M04/M07 A3026 RMK A01 T10391070  RH  079%=      5-min Rain = 0
KTAS 201413Z 20007KT M04/M07 A3026 RMK A01 T10391069  RH  079%=      5-min Rain = 0
KTAS 201414Z 20007KT M04/M07 A3026 RMK A01 T10381069  RH  079%=      5-min Rain = 0
KTAS 201415Z 20007KT M04/M07 A3026 RMK A01 T10381069  RH  079%=      5-min Rain = 0
KTAS 201416Z 19007KT M04/M07 A3026 RMK A01 T10381068  RH  079%=      5-min Rain = 0
KTAS 201417Z 19007KT M04/M07 A3026 RMK A01 T10371068  RH  079%=      5-min Rain = 0
KTAS 201418Z 19007KT M04/M07 A3025 RMK A01 T10371067  RH  079%=      5-min Rain = 0
KTAS 201419Z 19008KT M04/M07 A3025 RMK A01 T10361067  RH  079%=      5-min Rain = 0
KTAS 201420Z 19007KT M04/M07 A3025 RMK A01 T10351066  RH  079%=      5-min Rain = 0
KTAS 201421Z 19007KT M03/M07 A3025 RMK A01 T10341065  RH  079%=      5-min Rain = 0
KTAS 201422Z 19007KT M03/M07 A3025 RMK A01 T10341065  RH  079%=      5-min Rain = 0
KTAS 201423Z 18007KT M03/M07 A3026 RMK A01 T10331065  RH  079%=      5-min Rain = 0
KTAS 201424Z 18007KT M03/M06 A3026 RMK A01 T10331064  RH  079%=      5-min Rain = 0
KTAS 201425Z 18007KT M03/M06 A3026 RMK A01 T10321063  RH  079%=      5-min Rain = 0
KTAS 201426Z 18007KT M03/M06 A3026 RMK A01 T10311062  RH  079%=      5-min Rain = 0
KTAS 201427Z 18007KT M03/M06 A3025 RMK A01 T10291060  RH  079%=      5-min Rain = 0
KTAS 201428Z 18007KT M03/M06 A3026 RMK A01 T10271059  RH  079%=      5-min Rain = 0
KTAS 201429Z 18007KT M03/M06 A3026 RMK A01 T10261058  RH  079%=      5-min Rain = 0
KTAS 201430Z 19007KT M03/M06 A3026 RMK A01 T10251058  RH  078%=      5-min Rain = 0
KTAS 201431Z 18007KT M02/M06 A3026 RMK A01 T10241057  RH  078%=      5-min Rain = 0
KTAS 201432Z 19007KT M02/M06 A3025 RMK A01 T10231056  RH  078%=      5-min Rain = 0
KTAS 201433Z 18007KT M02/M06 A3026 RMK A01 T10221055  RH  078%=      5-min Rain = 0
KTAS 201434Z 18008KT M02/M05 A3025 RMK A01 T10201054  RH  078%=      5-min Rain = 0
KTAS 201435Z 18008KT M02/M05 A3026 RMK A01 T10181053  RH  077%=      5-min Rain = 0
KTAS 201436Z 18009KT M02/M05 A3026 RMK A01 T10171052  RH  077%=      5-min Rain = 0
KTAS 201437Z 18008KT M02/M05 A3026 RMK A01 T10151051  RH  076%=      5-min Rain = 0
KTAS 201438Z 18008KT M01/M05 A3026 RMK A01 T10141051  RH  076%=      5-min Rain = 0
KTAS 201439Z 18008KT M01/M05 A3026 RMK A01 T10121050  RH  075%=      5-min Rain = 0
KTAS 201440Z 18009KT M01/M05 A3026 RMK A01 T10111050  RH  075%=      5-min Rain = 0
KTAS 201441Z 18008KT M01/M05 A3026 RMK A01 T10111051  RH  074%=      5-min Rain = 0
KTAS 201442Z 18008KT M01/M05 A3026 RMK A01 T10101051  RH  074%=      5-min Rain = 0
KTAS 201443Z 18009KT M01/M05 A3026 RMK A01 T10091051  RH  073%=      5-min Rain = 0
KTAS 201444Z 18009KT M01/M05 A3026 RMK A01 T10091051  RH  073%=      5-min Rain = 0
KTAS 201445Z 18009KT M01/M05 A3026 RMK A01 T10081052  RH  072%=      5-min Rain = 0
KTAS 201446Z 18010KT M01/M05 A3026 RMK A01 T10071051  RH  072%=      5-min Rain = 0
KTAS 201447Z 18010KT M01/M05 A3026 RMK A01 T10061051  RH  072%=      5-min Rain = 0
KTAS 201448Z 18010KT M01/M05 A3026 RMK A01 T10061051  RH  071%=      5-min Rain = 0
KTAS 201449Z 18009KT M01/M05 A3025 RMK A01 T10051051  RH  071%=      5-min Rain = 0
KTAS 201450Z 18010KT M01/M05 A3025 RMK A01 T10051052  RH  071%=      5-min Rain = 0
KTAS 201451Z 18009KT M01/M05 A3025 RMK A01 T10051051  RH  071%=      5-min Rain = 0
KTAS 201452Z 18009KT M00/M05 A3025 RMK A01 T10041050  RH  071%=      5-min Rain = 0
KTAS 201453Z 18009KT M00/M05 A3025 RMK A01 T10031050  RH  071%=      5-min Rain = 0
KTAS 201454Z 18008KT M00/M05 A3025 RMK A01 T10021048  RH  071%=      5-min Rain = 0
KTAS 201455Z 18008KT 00/05 A3025 RMK A01 T00-00-48  RH  071%=      5-min Rain = 0
KTAS 201456Z 18009KT 00/05 A3025 RMK A01 T00000-47  RH  070%=      5-min Rain = 0
KTAS 201457Z 17009KT 00/05 A3025 RMK A01 T00000-48  RH  070%=      5-min Rain = 0
KTAS 201458Z 17008KT 00/M05 A3025 RMK A01 T00011047  RH  070%=      5-min Rain = 0
KTAS 201459Z 17010KT 00/M05 A3025 RMK A01 T00031046  RH  070%=      5-min Rain = 0
KTAS 201500Z 17010KT 00/M05 A3025 RMK A01 T00031047  RH  069%=      5-min Rain = 0
KTAS 201501Z 16010KT 00/M05 A3025 RMK A01 T00041046  RH  069%=      5-min Rain = 0
KTAS 201502Z 17010KT 01/M05 A3025 RMK A01 T00051045  RH  069%=      5-min Rain = 0
KTAS 201503Z 17011KT 01/M05 A3025 RMK A01 T00051046  RH  069%=      5-min Rain = 0
KTAS 201504Z 17011KT 00/M05 A3025 RMK A01 T00041047  RH  069%=      5-min Rain = 0
KTAS 201505Z 16010KT 00/M05 A3025 RMK A01 T00041047  RH  069%=      5-min Rain = 0
KTAS 201506Z 17008KT 01/M05 A3025 RMK A01 T00051045  RH  069%=      5-min Rain = 0
KTAS 201507Z 17009KT 01/M04 A3025 RMK A01 T00071043  RH  069%=      5-min Rain = 0
KTAS 201508Z 17010KT 01/M04 A3025 RMK A01 T00081043  RH  069%=      5-min Rain = 0
KTAS 201509Z 17011KT 01/M04 A3025 RMK A01 T00081044  RH  068%=      5-min Rain = 0
KTAS 201510Z 17009KT 01/M04 A3024 RMK A01 T00091043  RH  068%=      5-min Rain = 0
KTAS 201511Z 16008KT 01/M04 A3024 RMK A01 T00101042  RH  068%=      5-min Rain = 0
KTAS 201512Z 17010KT 01/M04 A3025 RMK A01 T00101042  RH  068%=      5-min Rain = 0
KTAS 201513Z 17009KT 01/M04 A3025 RMK A01 T00101043  RH  068%=      5-min Rain = 0
KTAS 201514Z 17010KT 01/M04 A3025 RMK A01 T00101043  RH  068%=      5-min Rain = 0
KTAS 201515Z 16010KT 01/M04 A3025 RMK A01 T00111042  RH  068%=      5-min Rain = 0
KTAS 201516Z 17011KT 01/M04 A3025 RMK A01 T00121042  RH  068%=      5-min Rain = 0
KTAS 201517Z 16011KT 01/M04 A3025 RMK A01 T00111043  RH  067%=      5-min Rain = 0
KTAS 201518Z 16009KT 01/M04 A3025 RMK A01 T00101044  RH  067%=      5-min Rain = 0
KTAS 201519Z 17009KT 01/M04 A3025 RMK A01 T00111043  RH  067%=      5-min Rain = 0
KTAS 201520Z 16008KT 01/M04 A3025 RMK A01 T00121042  RH  067%=      5-min Rain = 0
KTAS 201521Z 16008KT 01/M04 A3025 RMK A01 T00131042  RH  067%=      5-min Rain = 0
KTAS 201522Z 17008KT 01/M04 A3025 RMK A01 T00141041  RH  067%=      5-min Rain = 0
KTAS 201523Z 17007KT 01/M04 A3025 RMK A01 T00131042  RH  067%=      5-min Rain = 0
KTAS 201524Z 17008KT 01/M04 A3025 RMK A01 T00131042  RH  067%=      5-min Rain = 0
KTAS 201525Z 17008KT 01/M04 A3025 RMK A01 T00141041  RH  067%=      5-min Rain = 0
KTAS 201526Z 17009KT 02/M04 A3025 RMK A01 T00151040  RH  067%=      5-min Rain = 0
KTAS 201527Z 17008KT 01/M04 A3025 RMK A01 T00141041  RH  066%=      5-min Rain = 0
KTAS 201528Z 17009KT 01/M04 A3025 RMK A01 T00141042  RH  066%=      5-min Rain = 0
KTAS 201529Z 17009KT 01/M04 A3025 RMK A01 T00141042  RH  067%=      5-min Rain = 0
KTAS 201530Z 17010KT 01/M04 A3025 RMK A01 T00141042  RH  066%=      5-min Rain = 0
KTAS 201531Z 17011KT 01/M04 A3025 RMK A01 T00141042  RH  066%=      5-min Rain = 0
KTAS 201532Z 17010KT 01/M04 A3025 RMK A01 T00141042  RH  066%=      5-min Rain = 0
KTAS 201533Z 17010KT 01/M04 A3025 RMK A01 T00141042  RH  066%=      5-min Rain = 0
KTAS 201534Z 17009KT 02/M04 A3025 RMK A01 T00151041  RH  066%=      5-min Rain = 0
KTAS 201535Z 17009KT 02/M04 A3025 RMK A01 T00151042  RH  066%=      5-min Rain = 0
KTAS 201536Z 17010KT 02/M04 A3025 RMK A01 T00151041  RH  066%=      5-min Rain = 0
KTAS 201537Z 17010KT 02/M04 A3025 RMK A01 T00161041  RH  066%=      5-min Rain = 0
KTAS 201538Z 17010KT 02/M04 A3025 RMK A01 T00151041  RH  066%=      5-min Rain = 0
KTAS 201539Z 17009KT 02/M04 A3025 RMK A01 T00151041  RH  066%=      5-min Rain = 0
KTAS 201540Z 17009KT 02/M04 A3025 RMK A01 T00161040  RH  066%=      5-min Rain = 0
KTAS 201541Z 17008KT 02/M04 A3025 RMK A01 T00161040  RH  066%=      5-min Rain = 0
KTAS 201542Z 17009KT 02/M04 A3025 RMK A01 T00171039  RH  066%=      5-min Rain = 0
KTAS 201543Z 17009KT 02/M04 A3025 RMK A01 T00171039  RH  066%=      5-min Rain = 0
KTAS 201544Z 17009KT 02/M04 A3025 RMK A01 T00181039  RH  066%=      5-min Rain = 0
KTAS 201545Z 16009KT 02/M04 A3025 RMK A01 T00191038  RH  066%=      5-min Rain = 0
KTAS 201546Z 17009KT 02/M04 A3025 RMK A01 T00201038  RH  066%=      5-min Rain = 0
KTAS 201547Z 17009KT 02/M04 A3025 RMK A01 T00201038  RH  066%=      5-min Rain = 0
KTAS 201548Z 17010KT 02/M04 A3025 RMK A01 T00201038  RH  065%=      5-min Rain = 0
KTAS 201549Z 17010KT 02/M04 A3025 RMK A01 T00201038  RH  065%=      5-min Rain = 0
KTAS 201550Z 17008KT 02/M04 A3025 RMK A01 T00211037  RH  066%=      5-min Rain = 0
KTAS 201551Z 17009KT 02/M04 A3025 RMK A01 T00221036  RH  065%=      5-min Rain = 0
KTAS 201552Z 17008KT 02/M04 A3025 RMK A01 T00231035  RH  065%=      5-min Rain = 0
KTAS 201553Z 18009KT 03/M03 A3025 RMK A01 T00251034  RH  065%=      5-min Rain = 0
KTAS 201554Z 18012KT 03/M04 A3025 RMK A01 T00251035  RH  064%=      5-min Rain = 0
KTAS 201555Z 18012KT 03/M04 A3025 RMK A01 T00251036  RH  064%=      5-min Rain = 0
KTAS 201556Z 18011KT 03/M04 A3025 RMK A01 T00261036  RH  064%=      5-min Rain = 0
KTAS 201557Z 18011KT 03/M04 A3025 RMK A01 T00261037  RH  064%=      5-min Rain = 0
KTAS 201558Z 18011KT 03/M04 A3025 RMK A01 T00261036  RH  064%=      5-min Rain = 0
KTAS 201559Z 17012KT 03/M04 A3025 RMK A01 T00271035  RH  063%=      5-min Rain = 0
KTAS 201600Z 17012KT 03/M04 A3025 RMK A01 T00281035  RH  063%=      5-min Rain = 0
KTAS 201601Z 18012KT 03/M04 A3025 RMK A01 T00291035  RH  063%=      5-min Rain = 0
KTAS 201602Z 18012KT 03/M03 A3025 RMK A01 T00301034  RH  063%=      5-min Rain = 0
KTAS 201603Z 18011KT 03/M03 A3025 RMK A01 T00311034  RH  062%=      5-min Rain = 0
KTAS 201604Z 18010KT 03/M03 A3025 RMK A01 T00311034  RH  062%=      5-min Rain = 0
KTAS 201605Z 18010KT 03/M03 A3025 RMK A01 T00341031  RH  062%=      5-min Rain = 0
KTAS 201606Z 17010KT 04/M03 A3025 RMK A01 T00361031  RH  062%=      5-min Rain = 0
KTAS 201607Z 18012KT 04/M03 A3025 RMK A01 T00381030  RH  061%=      5-min Rain = 0
KTAS 201608Z 18011KT 04/M03 A3025 RMK A01 T00371033  RH  060%=      5-min Rain = 0
KTAS 201609Z 18013KT 04/M03 A3025 RMK A01 T00381033  RH  060%=      5-min Rain = 0
KTAS 201610Z 19010KT 04/M03 A3025 RMK A01 T00371034  RH  060%=      5-min Rain = 0
KTAS 201611Z 19010KT 04/M03 A3025 RMK A01 T00371033  RH  060%=      5-min Rain = 0
KTAS 201612Z 20012KT 04/M03 A3025 RMK A01 T00381032  RH  060%=      5-min Rain = 0
KTAS 201613Z 18013KT 04/M03 A3025 RMK A01 T00381033  RH  060%=      5-min Rain = 0
KTAS 201614Z 18013KT 04/M03 A3025 RMK A01 T00371034  RH  060%=      5-min Rain = 0
KTAS 201615Z 18013KT 04/M03 A3025 RMK A01 T00381033  RH  060%=      5-min Rain = 0
KTAS 201616Z 19014KT 04/M03 A3025 RMK A01 T00391033  RH  060%=      5-min Rain = 0
KTAS 201617Z 18013KT 04/M03 A3025 RMK A01 T00401032  RH  059%=      5-min Rain = 0
KTAS 201618Z 18013KT 04/M03 A3025 RMK A01 T00411033  RH  059%=      5-min Rain = 0
KTAS 201619Z 19013KT 04/M03 A3025 RMK A01 T00431031  RH  059%=      5-min Rain = 0
KTAS 201620Z 18013KT 04/M03 A3025 RMK A01 T00441031  RH  058%=      5-min Rain = 0
KTAS 201621Z 17014KT 05/M03 A3025 RMK A01 T00451033  RH  057%=      5-min Rain = 0
KTAS 201622Z 18011KT 04/M03 A3024 RMK A01 T00441032  RH  057%=      5-min Rain = 0
KTAS 201623Z 19013KT 05/M03 A3024 RMK A01 T00461031  RH  057%=      5-min Rain = 0
KTAS 201624Z 18011KT 05/M03 A3024 RMK A01 T00471031  RH  057%=      5-min Rain = 0
KTAS 201625Z 18015KT 05/M03 A3024 RMK A01 T00491031  RH  056%=      5-min Rain = 0
KTAS 201626Z 18015KT 05/M03 A3024 RMK A01 T00481034  RH  055%=      5-min Rain = 0
KTAS 201627Z 18014KT 05/M04 A3024 RMK A01 T00461035  RH  056%=      5-min Rain = 0
KTAS 201628Z 18012KT 05/M04 A3024 RMK A01 T00451035  RH  056%=      5-min Rain = 0
KTAS 201629Z 18012KT 05/M03 A3024 RMK A01 T00461034  RH  056%=      5-min Rain = 0
KTAS 201630Z 19015KT 05/M03 A3024 RMK A01 T00481033  RH  056%=      5-min Rain = 0
KTAS 201631Z 18015KT 05/M03 A3024 RMK A01 T00471034  RH  055%=      5-min Rain = 0
KTAS 201632Z 19013KT 05/M03 A3024 RMK A01 T00471034  RH  056%=      5-min Rain = 0
KTAS 201633Z 19014KT 05/M03 A3024 RMK A01 T00481033  RH  056%=      5-min Rain = 0
KTAS 201634Z 19013KT 05/M03 A3024 RMK A01 T00481034  RH  055%=      5-min Rain = 0
KTAS 201635Z 19013KT 05/M03 A3024 RMK A01 T00511030  RH  056%=      5-min Rain = 0
KTAS 201636Z 19013KT 05/M03 A3024 RMK A01 T00511033  RH  055%=      5-min Rain = 0
KTAS 201637Z 19012KT 05/M03 A3024 RMK A01 T00511032  RH  055%=      5-min Rain = 0
KTAS 201638Z 19014KT 05/M03 A3024 RMK A01 T00511033  RH  054%=      5-min Rain = 0
KTAS 201639Z 19013KT 05/M03 A3024 RMK A01 T00511032  RH  055%=      5-min Rain = 0
KTAS 201640Z 19013KT 05/M03 A3024 RMK A01 T00541029  RH  055%=      5-min Rain = 0
KTAS 201641Z 19014KT 06/M03 A3024 RMK A01 T00561030  RH  054%=      5-min Rain = 0
KTAS 201642Z 20014KT 06/M03 A3024 RMK A01 T00551032  RH  053%=      5-min Rain = 0
KTAS 201643Z 19012KT 05/M03 A3024 RMK A01 T00531032  RH  054%=      5-min Rain = 0
KTAS 201644Z 19011KT 06/M03 A3024 RMK A01 T00571028  RH  054%=      5-min Rain = 0
KTAS 201645Z 20011KT 06/M03 A3024 RMK A01 T00601028  RH  053%=      5-min Rain = 0
KTAS 201646Z 20011KT 06/M03 A3024 RMK A01 T00601028  RH  053%=      5-min Rain = 0
KTAS 201647Z 20011KT 06/M03 A3024 RMK A01 T00611027  RH  053%=      5-min Rain = 0
KTAS 201648Z 19011KT 06/M03 A3024 RMK A01 T00641027  RH  052%=      5-min Rain = 0
KTAS 201649Z 19011KT 06/M03 A3024 RMK A01 T00631029  RH  052%=      5-min Rain = 0
KTAS 201650Z 19013KT 06/M03 A3024 RMK A01 T00631028  RH  052%=      5-min Rain = 0
KTAS 201651Z 20014KT 07/M03 A3024 RMK A01 T00651028  RH  051%=      5-min Rain = 0
KTAS 201652Z 20011KT 07/M03 A3024 RMK A01 T00651028  RH  051%=      5-min Rain = 0
KTAS 201653Z 19009KT 07/M02 A3024 RMK A01 T00691024  RH  051%=      5-min Rain = 0
KTAS 201654Z 19013KT 07/M03 A3024 RMK A01 T00721026  RH  049%=      5-min Rain = 0
KTAS 201655Z 20014KT 07/M03 A3024 RMK A01 T00711030  RH  049%=      5-min Rain = 0
KTAS 201656Z 20013KT 07/M03 A3024 RMK A01 T00671032  RH  049%=      5-min Rain = 0
KTAS 201657Z 19013KT 07/M03 A3023 RMK A01 T00681030  RH  050%=      5-min Rain = 0
KTAS 201658Z 19014KT 07/M03 A3023 RMK A01 T00691031  RH  049%=      5-min Rain = 0
KTAS 201659Z 19014KT 07/M03 A3023 RMK A01 T00711030  RH  049%=      5-min Rain = 0
KTAS 201700Z 19014KT 07/M03 A3023 RMK A01 T00721031  RH  048%=      5-min Rain = 0
KTAS 201701Z 19012KT 07/M03 A3023 RMK A01 T00711031  RH  048%=      5-min Rain = 0
KTAS 201702Z 19011KT 07/M03 A3023 RMK A01 T00731029  RH  048%=      5-min Rain = 0
KTAS 201703Z 19014KT 07/M03 A3023 RMK A01 T00731031  RH  048%=      5-min Rain = 0
KTAS 201704Z 19011KT 07/M03 A3023 RMK A01 T00731030  RH  048%=      5-min Rain = 0
KTAS 201705Z 20009KT 07/M03 A3023 RMK A01 T00741028  RH  048%=      5-min Rain = 0
KTAS 201706Z 20013KT 08/M03 A3023 RMK A01 T00781028  RH  047%=      5-min Rain = 0
KTAS 201707Z 20014KT 08/M03 A3023 RMK A01 T00771031  RH  046%=      5-min Rain = 0
KTAS 201708Z 20014KT 08/M03 A3023 RMK A01 T00751032  RH  046%=      5-min Rain = 0
KTAS 201709Z 20014KT 08/M03 A3024 RMK A01 T00761031  RH  047%=      5-min Rain = 0
KTAS 201710Z 21014KT 08/M03 A3024 RMK A01 T00751031  RH  047%=      5-min Rain = 0
KTAS 201711Z 20015KT 08/M03 A3024 RMK A01 T00751031  RH  047%=      5-min Rain = 0
KTAS 201712Z 21014KT 08/M03 A3024 RMK A01 T00761031  RH  047%=      5-min Rain = 0
KTAS 201713Z 21014KT 08/M03 A3024 RMK A01 T00781029  RH  047%=      5-min Rain = 0
KTAS 201714Z 21013KT 08/M03 A3024 RMK A01 T00791030  RH  046%=      5-min Rain = 0
KTAS 201715Z 21012KT 08/M03 A3024 RMK A01 T00781030  RH  046%=      5-min Rain = 0
KTAS 201716Z 21015KT 08/M03 A3024 RMK A01 T00791031  RH  046%=      5-min Rain = 0
KTAS 201717Z 20013KT 08/M03 A3024 RMK A01 T00771033  RH  046%=      5-min Rain = 0
KTAS 201718Z 20013KT 08/M03 A3024 RMK A01 T00761031  RH  047%=      5-min Rain = 0
KTAS 201719Z 20013KT 08/M03 A3024 RMK A01 T00791029  RH  046%=      5-min Rain = 0
KTAS 201720Z 21014KT 08/M03 A3024 RMK A01 T00821029  RH  046%=      5-min Rain = 0
KTAS 201721Z 21014KT 08/M03 A3024 RMK A01 T00811033  RH  045%=      5-min Rain = 0
KTAS 201722Z 21011KT 08/M03 A3024 RMK A01 T00811029  RH  046%=      5-min Rain = 0
KTAS 201723Z 22012KT 08/M03 A3024 RMK A01 T00841029  RH  045%=      5-min Rain = 0
KTAS 201724Z 21012KT 08/M03 A3024 RMK A01 T00831031  RH  045%=      5-min Rain = 0
KTAS 201725Z 20013KT 08/M03 A3024 RMK A01 T00831029  RH  045%=      5-min Rain = 0
KTAS 201726Z 20011KT 09/M03 A3024 RMK A01 T00851028  RH  045%=      5-min Rain = 0
KTAS 201727Z 21009KT 09/M03 A3024 RMK A01 T00891026  RH  044%=      5-min Rain = 0
KTAS 201728Z 21008KT 09/M02 A3024 RMK A01 T00941024  RH  044%=      5-min Rain = 0
KTAS 201729Z 20011KT 10/M03 A3023 RMK A01 T00971026  RH  042%=      5-min Rain = 0
KTAS 201730Z 20009KT 09/M03 A3023 RMK A01 T00921029  RH  042%=      5-min Rain = 0
KTAS 201731Z 21012KT 09/M03 A3023 RMK A01 T00921028  RH  043%=      5-min Rain = 0
KTAS 201732Z 21011KT 09/M03 A3023 RMK A01 T00901034  RH  042%=      5-min Rain = 0
KTAS 201733Z 20013KT 09/M03 A3023 RMK A01 T00901030  RH  043%=      5-min Rain = 0
KTAS 201734Z 20013KT 09/M03 A3023 RMK A01 T00901029  RH  043%=      5-min Rain = 0
KTAS 201735Z 21013KT 09/M03 A3023 RMK A01 T00911030  RH  042%=      5-min Rain = 0
KTAS 201736Z 21012KT 10/M03 A3023 RMK A01 T00951029  RH  042%=      5-min Rain = 0
KTAS 201737Z 21013KT 10/M03 A3023 RMK A01 T00951029  RH  041%=      5-min Rain = 0
KTAS 201738Z 21014KT 10/M03 A3023 RMK A01 T00951032  RH  041%=      5-min Rain = 0
KTAS 201739Z 21014KT 09/M03 A3023 RMK A01 T00941033  RH  041%=      5-min Rain = 0
KTAS 201740Z 21011KT 10/M03 A3023 RMK A01 T00961031  RH  041%=      5-min Rain = 0
KTAS 201741Z 21014KT 10/M03 A3023 RMK A01 T00991033  RH  040%=      5-min Rain = 0
KTAS 201742Z 21015KT 10/M04 A3022 RMK A01 T00981035  RH  039%=      5-min Rain = 0
KTAS 201743Z 22013KT 10/M04 A3022 RMK A01 T00971035  RH  039%=      5-min Rain = 0
KTAS 201744Z 22011KT 10/M03 A3022 RMK A01 T00971032  RH  040%=      5-min Rain = 0
KTAS 201745Z 21012KT 10/M03 A3022 RMK A01 T00971032  RH  040%=      5-min Rain = 0
KTAS 201746Z 21014KT 10/M03 A3022 RMK A01 T00991030  RH  040%=      5-min Rain = 0
KTAS 201747Z 21011KT 10/M03 A3022 RMK A01 T01011031  RH  040%=      5-min Rain = 0
KTAS 201748Z 22013G18KT 10/M03 A3022 RMK A01 T01011032  RH  039%=      5-min Rain = 0
KTAS 201749Z 22015KT 10/M04 A3022 RMK A01 T00981036  RH  039%=      5-min Rain = 0
KTAS 201750Z 21013KT 10/M04 A3022 RMK A01 T00981037  RH  039%=      5-min Rain = 0
KTAS 201751Z 21014KT 10/M04 A3022 RMK A01 T00971035  RH  039%=      5-min Rain = 0
KTAS 201752Z 21015KT 10/M04 A3022 RMK A01 T00961037  RH  039%=      5-min Rain = 0
KTAS 201753Z 21013KT 10/M04 A3022 RMK A01 T00971037  RH  039%=      5-min Rain = 0
KTAS 201754Z 22013KT 10/M04 A3022 RMK A01 T00991035  RH  039%=      5-min Rain = 0
KTAS 201755Z 21013KT 10/M03 A3022 RMK A01 T01021034  RH  038%=      5-min Rain = 0
KTAS 201756Z 21014KT 10/M04 A3022 RMK A01 T01021035  RH  038%=      5-min Rain = 0
KTAS 201757Z 22013KT 10/M04 A3022 RMK A01 T01011036  RH  038%=      5-min Rain = 0
KTAS 201758Z 21014KT 10/M03 A3022 RMK A01 T01021034  RH  038%=      5-min Rain = 0
KTAS 201759Z 20014KT 10/M04 A3022 RMK A01 T01021036  RH  038%=      5-min Rain = 0
KTAS 201800Z 21013KT 10/M04 A3022 RMK A01 T01021035  RH  038%=      5-min Rain = 0
KTAS 201801Z 21013KT 10/M04 A3022 RMK A01 T01011035  RH  038%=      5-min Rain = 0
KTAS 201802Z 21012KT 10/M03 A3022 RMK A01 T01021034  RH  038%=      5-min Rain = 0
KTAS 201803Z 21011KT 10/M04 A3022 RMK A01 T01011035  RH  038%=      5-min Rain = 0
KTAS 201804Z 20012KT 10/M03 A3022 RMK A01 T01021034  RH  038%=      5-min Rain = 0
KTAS 201805Z 20013KT 10/M04 A3021 RMK A01 T01031036  RH  038%=      5-min Rain = 0
KTAS 201806Z 20013KT 10/M04 A3021 RMK A01 T01031036  RH  038%=      5-min Rain = 0
KTAS 201807Z 20011KT 11/M03 A3021 RMK A01 T01051033  RH  038%=      5-min Rain = 0
KTAS 201808Z 21011KT 11/M03 A3021 RMK A01 T01061034  RH  037%=      5-min Rain = 0
KTAS 201809Z 21012KT 10/M04 A3021 RMK A01 T01041035  RH  037%=      5-min Rain = 0
KTAS 201810Z 20013KT 10/M03 A3021 RMK A01 T01041033  RH  038%=      5-min Rain = 0
KTAS 201811Z 20013KT 11/M03 A3021 RMK A01 T01081032  RH  037%=      5-min Rain = 0
KTAS 201812Z 20011KT 11/M03 A3021 RMK A01 T01081033  RH  037%=      5-min Rain = 0
KTAS 201813Z 21012KT 11/M03 A3021 RMK A01 T01091031  RH  037%=      5-min Rain = 0
KTAS 201814Z 20013KT 11/M03 A302 RMK A01 T01121032  RH  036%=      5-min Rain = 0
KTAS 201815Z 19014KT 11/M03 A302 RMK A01 T01131033  RH  036%=      5-min Rain = 0
KTAS 201816Z 21011KT 11/M03 A302 RMK A01 T01141032  RH  036%=      5-min Rain = 0
KTAS 201817Z 21012KT 12/M03 A302 RMK A01 T01151032  RH  035%=      5-min Rain = 0
KTAS 201818Z 21012KT 12/M03 A302 RMK A01 T01151034  RH  035%=      5-min Rain = 0
KTAS 201819Z 22012KT 11/M04 A302 RMK A01 T01121035  RH  035%=      5-min Rain = 0
KTAS 201820Z 21011KT 11/M03 A302 RMK A01 T01121032  RH  036%=      5-min Rain = 0
KTAS 201821Z 20015KT 11/M03 A302 RMK A01 T01141034  RH  035%=      5-min Rain = 0
KTAS 201822Z 20012KT 11/M04 A302 RMK A01 T01101037  RH  036%=      5-min Rain = 0
KTAS 201823Z 20011KT 11/M03 A3019 RMK A01 T01121031  RH  036%=      5-min Rain = 0
KTAS 201824Z 19013KT 12/M03 A3019 RMK A01 T01161032  RH  035%=      5-min Rain = 0
KTAS 201825Z 21013KT 12/M03 A3019 RMK A01 T01181032  RH  035%=      5-min Rain = 0
KTAS 201826Z 20011KT 12/M03 A3019 RMK A01 T01151033  RH  035%=      5-min Rain = 0
KTAS 201827Z 20013KT 12/M03 A3019 RMK A01 T01181032  RH  035%=      5-min Rain = 0
KTAS 201828Z 19013KT 12/M03 A3019 RMK A01 T01161033  RH  035%=      5-min Rain = 0
KTAS 201829Z 21012KT 12/M03 A3019 RMK A01 T01201033  RH  034%=      5-min Rain = 0
KTAS 201830Z 22014KT 12/M03 A3019 RMK A01 T01201034  RH  034%=      5-min Rain = 0
KTAS 201831Z 22012KT 12/M03 A3019 RMK A01 T01201033  RH  034%=      5-min Rain = 0
KTAS 201832Z 21011KT 12/M03 A3019 RMK A01 T01211031  RH  034%=      5-min Rain = 0
KTAS 201833Z 21013KT 12/M04 A3019 RMK A01 T01191035  RH  034%=      5-min Rain = 0
KTAS 201834Z 21013KT 12/M04 A3019 RMK A01 T01151036  RH  035%=      5-min Rain = 0
KTAS 201835Z 22014KT 11/M04 A3018 RMK A01 T01131036  RH  035%=      5-min Rain = 0
KTAS 201836Z 22015KT 11/M04 A3018 RMK A01 T01121037  RH  035%=      5-min Rain = 0
KTAS 201837Z 22014KT 11/M04 A3018 RMK A01 T01121038  RH  035%=      5-min Rain = 0
KTAS 201838Z 21014KT 11/M04 A3018 RMK A01 T01131037  RH  035%=      5-min Rain = 0
KTAS 201839Z 21013KT 11/M04 A3018 RMK A01 T01141035  RH  035%=      5-min Rain = 0
KTAS 201840Z 21013KT 11/M03 A3018 RMK A01 T01141034  RH  035%=      5-min Rain = 0
KTAS 201841Z 20012KT 12/M03 A3018 RMK A01 T01151033  RH  035%=      5-min Rain = 0
KTAS 201842Z 20013KT 12/M03 A3018 RMK A01 T01161032  RH  035%=      5-min Rain = 0
KTAS 201843Z 20012KT 12/M04 A3018 RMK A01 T01181036  RH  034%=      5-min Rain = 0
KTAS 201844Z 21014KT 12/M04 A3018 RMK A01 T01181037  RH  034%=      5-min Rain = 0
KTAS 201845Z 20013KT 12/M04 A3018 RMK A01 T01171037  RH  034%=      5-min Rain = 0
KTAS 201846Z 21015KT 12/M04 A3018 RMK A01 T01181037  RH  034%=      5-min Rain = 0
KTAS 201847Z 21013KT 12/M04 A3018 RMK A01 T01171037  RH  034%=      5-min Rain = 0
KTAS 201848Z 21012KT 12/M03 A3018 RMK A01 T01191033  RH  034%=      5-min Rain = 0
KTAS 201849Z 22014KT 12/M04 A3017 RMK A01 T01221036  RH  033%=      5-min Rain = 0
KTAS 201850Z 22013KT 12/M04 A3017 RMK A01 T01191037  RH  033%=      5-min Rain = 0
KTAS 201851Z 21015KT 12/M04 A3017 RMK A01 T01161038  RH  034%=      5-min Rain = 0
KTAS 201852Z 21014KT 12/M04 A3017 RMK A01 T01161039  RH  034%=      5-min Rain = 0
KTAS 201853Z 21014KT 12/M04 A3017 RMK A01 T01161040  RH  033%=      5-min Rain = 0
KTAS 201854Z 21013KT 12/M04 A3017 RMK A01 T01171039  RH  033%=      5-min Rain = 0
KTAS 201855Z 21015KT 12/M04 A3017 RMK A01 T01181039  RH  033%=      5-min Rain = 0
KTAS 201856Z 21014KT 12/M04 A3017 RMK A01 T01181040  RH  033%=      5-min Rain = 0
KTAS 201857Z 20015KT 12/M04 A3017 RMK A01 T01201039  RH  033%=      5-min Rain = 0
KTAS 201858Z 21014KT 12/M04 A3017 RMK A01 T01211040  RH  032%=      5-min Rain = 0
KTAS 201859Z 21014KT 12/M04 A3017 RMK A01 T01241038  RH  032%=      5-min Rain = 0
KTAS 201900Z 21011KT 13/M04 A3017 RMK A01 T01261038  RH  032%=      5-min Rain = 0
KTAS 201901Z 21013KT 13/M04 A3017 RMK A01 T01281038  RH  031%=      5-min Rain = 0
KTAS 201902Z 21014KT 13/M04 A3017 RMK A01 T01251040  RH  031%=      5-min Rain = 0
KTAS 201903Z 21014KT 12/M04 A3017 RMK A01 T01231041  RH  032%=      5-min Rain = 0
KTAS 201904Z 21014KT 12/M04 A3017 RMK A01 T01231042  RH  031%=      5-min Rain = 0
KTAS 201905Z 21015KT 12/M04 A3017 RMK A01 T01241042  RH  031%=      5-min Rain = 0
KTAS 201906Z 21014KT 12/M04 A3017 RMK A01 T01221042  RH  032%=      5-min Rain = 0
KTAS 201907Z 20013KT 12/M04 A3017 RMK A01 T01221040  RH  032%=      5-min Rain = 0
KTAS 201908Z 21014KT 13/M04 A3017 RMK A01 T01251039  RH  032%=      5-min Rain = 0
KTAS 201909Z 21011KT 12/M04 A3017 RMK A01 T01241040  RH  032%=      5-min Rain = 0
KTAS 201910Z 21009KT 13/M04 A3016 RMK A01 T01271035  RH  032%=      5-min Rain = 0
KTAS 201911Z 21014KT 13/M04 A3016 RMK A01 T01291039  RH  031%=      5-min Rain = 0
KTAS 201912Z 22013KT 13/M04 A3016 RMK A01 T01251041  RH  031%=      5-min Rain = 0
KTAS 201913Z 21011KT 13/M04 A3016 RMK A01 T01251038  RH  032%=      5-min Rain = 0
KTAS 201914Z 21014KT 13/M04 A3016 RMK A01 T01271039  RH  031%=      5-min Rain = 0
KTAS 201915Z 21014KT 13/M04 A3016 RMK A01 T01261041  RH  031%=      5-min Rain = 0
KTAS 201916Z 22013KT 13/M04 A3016 RMK A01 T01271040  RH  031%=      5-min Rain = 0
KTAS 201917Z 22014KT 13/M04 A3016 RMK A01 T01281039  RH  031%=      5-min Rain = 0
KTAS 201918Z 21013KT 13/M04 A3016 RMK A01 T01281041  RH  031%=      5-min Rain = 0
KTAS 201919Z 21012KT 13/M04 A3016 RMK A01 T01271040  RH  031%=      5-min Rain = 0
KTAS 201920Z 21012KT 13/M04 A3016 RMK A01 T01301038  RH  031%=      5-min Rain = 0
KTAS 201921Z 21012KT 13/M04 A3016 RMK A01 T01301038  RH  031%=      5-min Rain = 0
KTAS 201922Z 21013KT 13/M04 A3016 RMK A01 T01311035  RH  031%=      5-min Rain = 0
KTAS 201923Z 21014KT 13/M04 A3016 RMK A01 T01311037  RH  031%=      5-min Rain = 0
KTAS 201924Z 22014KT 13/M04 A3015 RMK A01 T01291038  RH  031%=      5-min Rain = 0
KTAS 201925Z 21012KT 13/M04 A3015 RMK A01 T01301036  RH  031%=      5-min Rain = 0
KTAS 201926Z 21011KT 13/M04 A3015 RMK A01 T01301036  RH  031%=      5-min Rain = 0
KTAS 201927Z 20012KT 13/M04 A3015 RMK A01 T01331037  RH  031%=      5-min Rain = 0
KTAS 201928Z 21011KT 13/M04 A3015 RMK A01 T01291039  RH  031%=      5-min Rain = 0
KTAS 201929Z 22013KT 13/M04 A3015 RMK A01 T01281037  RH  031%=      5-min Rain = 0
KTAS 201930Z 21013KT 13/M04 A3015 RMK A01 T01271039  RH  031%=      5-min Rain = 0
KTAS 201931Z 22013KT 13/M04 A3015 RMK A01 T01261039  RH  032%=      5-min Rain = 0
KTAS 201932Z 21011KT 13/M04 A3015 RMK A01 T01271037  RH  032%=      5-min Rain = 0
KTAS 201933Z 20012KT 13/M04 A3015 RMK A01 T01291037  RH  031%=      5-min Rain = 0
KTAS 201934Z 20012KT 13/M04 A3015 RMK A01 T01291040  RH  030%=      5-min Rain = 0
KTAS 201935Z 21011KT 13/M04 A3015 RMK A01 T01281039  RH  031%=      5-min Rain = 0
KTAS 201936Z 22013KT 13/M04 A3014 RMK A01 T01291038  RH  031%=      5-min Rain = 0
KTAS 201937Z 21010KT 13/M04 A3014 RMK A01 T01301036  RH  031%=      5-min Rain = 0
KTAS 201938Z 21013KT 13/M04 A3014 RMK A01 T01321036  RH  031%=      5-min Rain = 0
KTAS 201939Z 21012KT 13/M04 A3014 RMK A01 T01311037  RH  031%=      5-min Rain = 0
KTAS 201940Z 21012KT 13/M04 A3014 RMK A01 T01321037  RH  031%=      5-min Rain = 0
KTAS 201941Z 20012KT 13/M04 A3014 RMK A01 T01331037  RH  031%=      5-min Rain = 0
KTAS 201942Z 21011KT 14/M04 A3014 RMK A01 T01351037  RH  030%=      5-min Rain = 0
KTAS 201943Z 22012KT 14/M04 A3014 RMK A01 T01351039  RH  030%=      5-min Rain = 0
KTAS 201944Z 22012KT 13/M04 A3014 RMK A01 T01331039  RH  030%=      5-min Rain = 0
KTAS 201945Z 21012KT 13/M04 A3014 RMK A01 T01341038  RH  030%=      5-min Rain = 0
KTAS 201946Z 21013KT 13/M04 A3014 RMK A01 T01341042  RH  029%=      5-min Rain = 0
KTAS 201947Z 21010KT 14/M04 A3013 RMK A01 T01361040  RH  029%=      5-min Rain = 0
KTAS 201948Z 21012KT 14/M04 A3013 RMK A01 T01421037  RH  029%=      5-min Rain = 0
KTAS 201949Z 21011KT 14/M04 A3013 RMK A01 T01431038  RH  029%=      5-min Rain = 0
KTAS 201950Z 21010KT 14/M04 A3013 RMK A01 T01431036  RH  029%=      5-min Rain = 0
KTAS 201951Z 21009KT 15/M03 A3013 RMK A01 T01451034  RH  029%=      5-min Rain = 0
KTAS 201952Z 21011KT 15/M04 A3013 RMK A01 T01481035  RH  028%=      5-min Rain = 0
KTAS 201953Z 20011KT 15/M04 A3013 RMK A01 T01471038  RH  028%=      5-min Rain = 0
KTAS 201954Z 20013KT 15/M04 A3013 RMK A01 T01471038  RH  028%=      5-min Rain = 0
KTAS 201955Z 20011KT 15/M04 A3013 RMK A01 T01471039  RH  027%=      5-min Rain = 0
KTAS 201956Z 20013KT 15/M04 A3013 RMK A01 T01491039  RH  027%=      5-min Rain = 0
KTAS 201957Z 22013KT 15/M04 A3012 RMK A01 T01491040  RH  027%=      5-min Rain = 0
KTAS 201958Z 21012KT 15/M04 A3012 RMK A01 T01481041  RH  027%=      5-min Rain = 0
KTAS 201959Z 21012KT 15/M04 A3012 RMK A01 T01501040  RH  027%=      5-min Rain = 0
KTAS 202000Z 21014KT 15/M04 A3012 RMK A01 T01531042  RH  026%=      5-min Rain = 0
KTAS 202001Z 21013KT 15/M05 A3012 RMK A01 T01521045  RH  025%=      5-min Rain = 0
KTAS 202002Z 21013KT 15/M04 A3012 RMK A01 T01521043  RH  026%=      5-min Rain = 0
KTAS 202003Z 21013KT 15/M05 A3012 RMK A01 T01531045  RH  025%=      5-min Rain = 0
KTAS 202004Z 19012KT 16/M04 A3012 RMK A01 T01551042  RH  025%=      5-min Rain = 0
KTAS 202005Z 19012KT 16/M05 A3012 RMK A01 T01581045  RH  025%=      5-min Rain = 0
KTAS 202006Z 20013KT 16/M05 A3012 RMK A01 T01581046  RH  024%=      5-min Rain = 0
KTAS 202007Z 22015KT 16/M05 A3012 RMK A01 T01581050  RH  023%=      5-min Rain = 0
KTAS 202008Z 21013KT 16/M05 A3012 RMK A01 T01561052  RH  023%=      5-min Rain = 0
KTAS 202009Z 20013KT 16/M05 A3012 RMK A01 T01561051  RH  024%=      5-min Rain = 0
KTAS 202010Z 22011KT 16/M05 A3012 RMK A01 T01571054  RH  023%=      5-min Rain = 0
KTAS 202011Z 20016KT 16/M05 A3012 RMK A01 T01561051  RH  024%=      5-min Rain = 0
KTAS 202012Z 19014KT 16/M05 A3012 RMK A01 T01571050  RH  024%=      5-min Rain = 0
KTAS 202013Z 20014KT 16/M05 A3012 RMK A01 T01601050  RH  023%=      5-min Rain = 0
KTAS 202014Z 20011KT 16/M05 A3012 RMK A01 T01611048  RH  024%=      5-min Rain = 0
KTAS 202015Z 20012KT 16/M05 A3012 RMK A01 T01601050  RH  023%=      5-min Rain = 0
KTAS 202016Z 21012KT 16/M05 A3012 RMK A01 T01591050  RH  023%=      5-min Rain = 0
KTAS 202017Z 22015KT 16/M05 A3012 RMK A01 T01611049  RH  023%=      5-min Rain = 0
KTAS 202018Z 21013KT 16/M05 A3012 RMK A01 T01581051  RH  023%=      5-min Rain = 0
KTAS 202019Z 21013KT 16/M05 A3012 RMK A01 T01591048  RH  024%=      5-min Rain = 0
KTAS 202020Z 21011KT 16/M05 A3012 RMK A01 T01581050  RH  024%=      5-min Rain = 0
KTAS 202021Z 21012G17KT 16/M05 A3011 RMK A01 T01591050  RH  023%=      5-min Rain = 0
KTAS 202022Z 20015KT 16/M05 A3011 RMK A01 T01611051  RH  023%=      5-min Rain = 0
KTAS 202023Z 21014KT 16/M05 A3011 RMK A01 T01621050  RH  023%=      5-min Rain = 0
KTAS 202024Z 22013KT 16/M05 A3011 RMK A01 T01631051  RH  023%=      5-min Rain = 0
KTAS 202025Z 21011KT 16/M05 A3011 RMK A01 T01621051  RH  023%=      5-min Rain = 0
KTAS 202026Z 21012KT 16/M05 A3011 RMK A01 T01641051  RH  022%=      5-min Rain = 0
KTAS 202027Z 21010KT 16/M05 A3011 RMK A01 T01631050  RH  023%=      5-min Rain = 0
KTAS 202028Z 22011KT 16/M05 A3011 RMK A01 T01641048  RH  023%=      5-min Rain = 0
KTAS 202029Z 21014KT 17/M05 A3011 RMK A01 T01651047  RH  023%=      5-min Rain = 0
KTAS 202030Z 21013KT 17/M05 A3011 RMK A01 T01661050  RH  022%=      5-min Rain = 0
KTAS 202031Z 21011KT 17/M05 A301 RMK A01 T01661054  RH  022%=      5-min Rain = 0
KTAS 202032Z 21013KT 16/M05 A301 RMK A01 T01631052  RH  022%=      5-min Rain = 0
KTAS 202033Z 21013KT 16/M05 A301 RMK A01 T01591053  RH  023%=      5-min Rain = 0
KTAS 202034Z 20013KT 16/M05 A301 RMK A01 T01581050  RH  023%=      5-min Rain = 0
KTAS 202035Z 19012KT 16/M05 A301 RMK A01 T01621050  RH  023%=      5-min Rain = 0
KTAS 202036Z 20014KT 16/M05 A301 RMK A01 T01631051  RH  022%=      5-min Rain = 0
KTAS 202037Z 21013KT 16/M05 A301 RMK A01 T01631051  RH  022%=      5-min Rain = 0
KTAS 202038Z 21011KT 16/M05 A301 RMK A01 T01611053  RH  023%=      5-min Rain = 0
KTAS 202039Z 20012KT 16/M05 A301 RMK A01 T01601052  RH  023%=      5-min Rain = 0
KTAS 202040Z 21010KT 16/M05 A301 RMK A01 T01601052  RH  023%=      5-min Rain = 0
KTAS 202041Z 20012KT 16/M05 A301 RMK A01 T01621050  RH  023%=      5-min Rain = 0
KTAS 202042Z 21013KT 16/M05 A301 RMK A01 T01641050  RH  023%=      5-min Rain = 0
KTAS 202043Z 22014KT 16/M06 A301 RMK A01 T01641057  RH  021%=      5-min Rain = 0
KTAS 202044Z 22014KT 16/M06 A301 RMK A01 T01641059  RH  021%=      5-min Rain = 0
KTAS 202045Z 21012KT 16/M06 A301 RMK A01 T01641060  RH  021%=      5-min Rain = 0
KTAS 202046Z 20014KT 17/M06 A301 RMK A01 T01661061  RH  021%=      5-min Rain = 0
KTAS 202047Z 21014KT 17/M07 A301 RMK A01 T01651066  RH  020%=      5-min Rain = 0
KTAS 202048Z 21010KT 17/M06 A301 RMK A01 T01651063  RH  020%=      5-min Rain = 0
KTAS 202049Z 21013KT 17/M06 A301 RMK A01 T01661063  RH  020%=      5-min Rain = 0
KTAS 202050Z 21015KT 17/M07 A301 RMK A01 T01651065  RH  020%=      5-min Rain = 0
KTAS 202051Z 21013KT 16/M07 A3009 RMK A01 T01641065  RH  020%=      5-min Rain = 0
KTAS 202052Z 22013KT 17/M06 A3009 RMK A01 T01651062  RH  020%=      5-min Rain = 0
KTAS 202053Z 20014KT 17/M07 A3009 RMK A01 T01671066  RH  020%=      5-min Rain = 0
KTAS 202054Z 21016KT 17/M07 A3009 RMK A01 T01681068  RH  019%=      5-min Rain = 0
KTAS 202055Z 21013KT 17/M07 A3009 RMK A01 T01671068  RH  019%=      5-min Rain = 0
KTAS 202056Z 21012KT 17/M06 A3009 RMK A01 T01701064  RH  020%=      5-min Rain = 0
KTAS 202057Z 21015KT 17/M07 A3009 RMK A01 T01711065  RH  019%=      5-min Rain = 0
KTAS 202058Z 22015KT 17/M07 A3009 RMK A01 T01701066  RH  019%=      5-min Rain = 0
KTAS 202059Z 20013KT 17/M06 A3009 RMK A01 T01701062  RH  020%=      5-min Rain = 0
KTAS 202100Z 19013KT 17/M06 A3009 RMK A01 T01711056  RH  021%=      5-min Rain = 0
KTAS 202101Z 19013KT 17/M06 A3009 RMK A01 T01711057  RH  021%=      5-min Rain = 0
KTAS 202102Z 19011KT 17/M05 A3009 RMK A01 T01721054  RH  021%=      5-min Rain = 0
KTAS 202103Z 19013KT 18/M05 A3009 RMK A01 T01771054  RH  020%=      5-min Rain = 0
KTAS 202104Z 21012KT 18/M06 A3009 RMK A01 T01771055  RH  020%=      5-min Rain = 0
KTAS 202105Z 20014KT 18/M06 A3009 RMK A01 T01751059  RH  020%=      5-min Rain = 0
KTAS 202106Z 21014KT 17/M06 A3009 RMK A01 T01721060  RH  020%=      5-min Rain = 0
KTAS 202107Z 20012KT 17/M06 A3009 RMK A01 T01681061  RH  020%=      5-min Rain = 0
KTAS 202108Z 22011KT 17/M06 A3009 RMK A01 T01691058  RH  021%=      5-min Rain = 0
KTAS 202109Z 20011G16KT 17/M06 A3009 RMK A01 T01721058  RH  020%=      5-min Rain = 0
KTAS 202110Z 20013KT 17/M06 A3009 RMK A01 T01741061  RH  020%=      5-min Rain = 0
KTAS 202111Z 21011KT 17/M06 A3009 RMK A01 T01731062  RH  019%=      5-min Rain = 0
KTAS 202112Z 20014KT 17/M07 A3009 RMK A01 T01741066  RH  019%=      5-min Rain = 0
KTAS 202113Z 20012KT 17/M07 A3008 RMK A01 T01721069  RH  019%=      5-min Rain = 0
KTAS 202114Z 21010KT 17/M07 A3008 RMK A01 T01701068  RH  019%=      5-min Rain = 0
KTAS 202115Z 21012G18KT 17/M07 A3008 RMK A01 T01731066  RH  019%=      5-min Rain = 0
KTAS 202116Z 20014KT 17/M07 A3008 RMK A01 T01741073  RH  018%=      5-min Rain = 0
KTAS 202117Z 20015KT 17/M08 A3008 RMK A01 T01741075  RH  018%=      5-min Rain = 0
KTAS 202118Z 20012KT 17/M08 A3008 RMK A01 T01741076  RH  018%=      5-min Rain = 0
KTAS 202119Z 20012KT 18/M08 A3008 RMK A01 T01751076  RH  017%=      5-min Rain = 0
KTAS 202120Z 21013KT 17/M08 A3008 RMK A01 T01741079  RH  017%=      5-min Rain = 0
KTAS 202121Z 21011KT 17/M08 A3008 RMK A01 T01741079  RH  017%=      5-min Rain = 0
KTAS 202122Z 21013KT 17/M08 A3008 RMK A01 T01741081  RH  017%=      5-min Rain = 0
KTAS 202123Z 20014KT 17/M08 A3008 RMK A01 T01721081  RH  017%=      5-min Rain = 0
KTAS 202124Z 20014KT 17/M08 A3008 RMK A01 T01721083  RH  017%=      5-min Rain = 0
KTAS 202125Z 20013G18KT 17/M08 A3008 RMK A01 T01721083  RH  017%=      5-min Rain = 0
KTAS 202126Z 20012KT 17/M08 A3008 RMK A01 T01731081  RH  017%=      5-min Rain = 0
KTAS 202127Z 19014KT 18/M08 A3008 RMK A01 T01771080  RH  017%=      5-min Rain = 0
KTAS 202128Z 21011KT 18/M08 A3008 RMK A01 T01791081  RH  016%=      5-min Rain = 0
KTAS 202129Z 19009KT 18/M08 A3008 RMK A01 T01801079  RH  016%=      5-min Rain = 0
KTAS 202130Z 19014KT 18/M08 A3008 RMK A01 T01831082  RH  016%=      5-min Rain = 0
KTAS 202131Z 19014KT 18/M09 A3008 RMK A01 T01801085  RH  016%=      5-min Rain = 0
KTAS 202132Z 21010KT 18/M08 A3008 RMK A01 T01811081  RH  016%=      5-min Rain = 0
KTAS 202133Z 20013G18KT 18/M08 A3008 RMK A01 T01831084  RH  016%=      5-min Rain = 0
KTAS 202134Z 19014KT 18/M09 A3008 RMK A01 T01791090  RH  015%=      5-min Rain = 0
KTAS 202135Z 19014KT 18/M09 A3008 RMK A01 T01771089  RH  015%=      5-min Rain = 0
KTAS 202136Z 21012G20KT 18/M09 A3008 RMK A01 T01781087  RH  016%=      5-min Rain = 0
KTAS 202137Z 21015KT 18/M09 A3008 RMK A01 T01791089  RH  015%=      5-min Rain = 0
KTAS 202138Z 21013KT 18/M09 A3008 RMK A01 T01791088  RH  015%=      5-min Rain = 0
KTAS 202139Z 20014KT 18/M09 A3008 RMK A01 T01791087  RH  015%=      5-min Rain = 0
KTAS 202140Z 21013KT 18/M09 A3008 RMK A01 T01771088  RH  016%=      5-min Rain = 0
KTAS 202141Z 21011KT 18/M08 A3008 RMK A01 T01771084  RH  016%=      5-min Rain = 0
KTAS 202142Z 20014KT 18/M08 A3008 RMK A01 T01791084  RH  016%=      5-min Rain = 0
KTAS 202143Z 21015KT 18/M09 A3008 RMK A01 T01781087  RH  016%=      5-min Rain = 0
KTAS 202144Z 21016KT 18/M09 A3007 RMK A01 T01771089  RH  015%=      5-min Rain = 0
KTAS 202145Z 21015KT 18/M09 A3008 RMK A01 T01761090  RH  015%=      5-min Rain = 0
KTAS 202146Z 21014KT 18/M09 A3008 RMK A01 T01751092  RH  015%=      5-min Rain = 0
KTAS 202147Z 21014KT 18/M09 A3008 RMK A01 T01751088  RH  016%=      5-min Rain = 0
KTAS 202148Z 21014KT 18/M09 A3008 RMK A01 T01761086  RH  016%=      5-min Rain = 0
KTAS 202149Z 21014KT 18/M09 A3008 RMK A01 T01771087  RH  016%=      5-min Rain = 0
KTAS 202150Z 21013KT 18/M08 A3008 RMK A01 T01781084  RH  016%=      5-min Rain = 0
KTAS 202151Z 20011G16KT 18/M08 A3008 RMK A01 T01801084  RH  016%=      5-min Rain = 0
KTAS 202152Z 21012KT 18/M09 A3008 RMK A01 T01801086  RH  015%=      5-min Rain = 0
KTAS 202153Z 21012KT 18/M09 A3008 RMK A01 T01781087  RH  016%=      5-min Rain = 0
KTAS 202154Z 20015KT 18/M09 A3007 RMK A01 T01791087  RH  016%=      5-min Rain = 0
KTAS 202155Z 20014KT 18/M09 A3007 RMK A01 T01771087  RH  016%=      5-min Rain = 0
KTAS 202156Z 21014KT 18/M09 A3007 RMK A01 T01771086  RH  016%=      5-min Rain = 0
KTAS 202157Z 20015KT 18/M09 A3007 RMK A01 T01771088  RH  016%=      5-min Rain = 0
KTAS 202158Z 21014KT 18/M09 A3007 RMK A01 T01761086  RH  016%=      5-min Rain = 0
KTAS 202159Z 21014KT 18/M09 A3007 RMK A01 T01771087  RH  016%=      5-min Rain = 0
KTAS 202200Z 21015KT 18/M09 A3007 RMK A01 T01771088  RH  016%=      5-min Rain = 0
KTAS 202201Z 21015KT 18/M09 A3007 RMK A01 T01761090  RH  015%=      5-min Rain = 0
KTAS 202202Z 20013KT 18/M09 A3008 RMK A01 T01771089  RH  015%=      5-min Rain = 0
KTAS 202203Z 21013KT 18/M09 A3008 RMK A01 T01781089  RH  015%=      5-min Rain = 0
KTAS 202204Z 20011KT 18/M09 A3007 RMK A01 T01771088  RH  015%=      5-min Rain = 0
KTAS 202205Z 21014G20KT 18/M09 A3007 RMK A01 T01781086  RH  016%=      5-min Rain = 0
KTAS 202206Z 21015KT 18/M09 A3007 RMK A01 T01771086  RH  016%=      5-min Rain = 0
KTAS 202207Z 19011G16KT 18/M08 A3007 RMK A01 T01771084  RH  016%=      5-min Rain = 0
KTAS 202208Z 20012KT 18/M08 A3007 RMK A01 T01791083  RH  016%=      5-min Rain = 0
KTAS 202209Z 20013KT 18/M09 A3007 RMK A01 T01791085  RH  016%=      5-min Rain = 0
KTAS 202210Z 20013KT 18/M09 A3007 RMK A01 T01781089  RH  015%=      5-min Rain = 0
KTAS 202211Z 21013KT 18/M09 A3007 RMK A01 T01771092  RH  015%=      5-min Rain = 0
KTAS 202212Z 21013KT 18/M09 A3007 RMK A01 T01771091  RH  015%=      5-min Rain = 0
KTAS 202213Z 21013KT 18/M09 A3007 RMK A01 T01781091  RH  015%=      5-min Rain = 0
KTAS 202214Z 22012KT 18/M09 A3007 RMK A01 T01781091  RH  015%=      5-min Rain = 0
KTAS 202215Z 21010KT 18/M09 A3007 RMK A01 T01771088  RH  016%=      5-min Rain = 0
KTAS 202216Z 21010KT 18/M09 A3007 RMK A01 T01791086  RH  016%=      5-min Rain = 0
KTAS 202217Z 21013KT 18/M09 A3007 RMK A01 T01801085  RH  016%=      5-min Rain = 0
KTAS 202218Z 22013KT 18/M09 A3007 RMK A01 T01791090  RH  015%=      5-min Rain = 0
KTAS 202219Z 21013KT 18/M09 A3007 RMK A01 T01781089  RH  015%=      5-min Rain = 0
KTAS 202220Z 20014KT 18/M09 A3007 RMK A01 T01781087  RH  016%=      5-min Rain = 0
KTAS 202221Z 20013KT 18/M09 A3007 RMK A01 T01771088  RH  016%=      5-min Rain = 0
KTAS 202222Z 21012KT 18/M09 A3007 RMK A01 T01771087  RH  016%=      5-min Rain = 0
KTAS 202223Z 21011KT 18/M09 A3007 RMK A01 T01771085  RH  016%=      5-min Rain = 0
KTAS 202224Z 21009KT 18/M08 A3007 RMK A01 T01781083  RH  016%=      5-min Rain = 0
KTAS 202225Z 21009KT 18/M08 A3007 RMK A01 T01801082  RH  016%=      5-min Rain = 0
KTAS 202226Z 21012KT 18/M09 A3007 RMK A01 T01801086  RH  016%=      5-min Rain = 0
KTAS 202227Z 21013KT 18/M09 A3007 RMK A01 T01791089  RH  015%=      5-min Rain = 0
KTAS 202228Z 21013KT 18/M09 A3007 RMK A01 T01781091  RH  015%=      5-min Rain = 0
KTAS 202229Z 21011KT 18/M09 A3007 RMK A01 T01761092  RH  015%=      5-min Rain = 0
KTAS 202230Z 21012KT 18/M09 A3007 RMK A01 T01771090  RH  015%=      5-min Rain = 0
KTAS 202231Z 20010KT 18/M09 A3007 RMK A01 T01781088  RH  015%=      5-min Rain = 0
KTAS 202232Z 20013KT 18/M09 A3007 RMK A01 T01781090  RH  015%=      5-min Rain = 0
KTAS 202233Z 20014KT 18/M09 A3007 RMK A01 T01781090  RH  015%=      5-min Rain = 0
KTAS 202234Z 21013KT 18/M09 A3007 RMK A01 T01771093  RH  015%=      5-min Rain = 0
KTAS 202235Z 21014KT 18/M09 A3007 RMK A01 T01761093  RH  015%=      5-min Rain = 0
KTAS 202236Z 21013KT 18/M09 A3007 RMK A01 T01751092  RH  015%=      5-min Rain = 0
KTAS 202237Z 21014KT 18/M09 A3007 RMK A01 T01751092  RH  015%=      5-min Rain = 0
KTAS 202238Z 20012KT 18/M09 A3007 RMK A01 T01751092  RH  015%=      5-min Rain = 0
KTAS 202239Z 21014KT 18/M09 A3007 RMK A01 T01761091  RH  015%=      5-min Rain = 0
KTAS 202240Z 21013KT 18/M09 A3007 RMK A01 T01751094  RH  015%=      5-min Rain = 0
KTAS 202241Z 20012KT 18/M09 A3007 RMK A01 T01751094  RH  015%=      5-min Rain = 0
KTAS 202242Z 20011KT 18/M09 A3007 RMK A01 T01761092  RH  015%=      5-min Rain = 0
KTAS 202243Z 21011KT 18/M09 A3007 RMK A01 T01761093  RH  015%=      5-min Rain = 0
KTAS 202244Z 21013KT 18/M09 A3007 RMK A01 T01761091  RH  015%=      5-min Rain = 0
KTAS 202245Z 20015KT 17/M09 A3007 RMK A01 T01741093  RH  015%=      5-min Rain = 0
KTAS 202246Z 21013KT 17/M09 A3007 RMK A01 T01721093  RH  015%=      5-min Rain = 0
KTAS 202247Z 21014KT 17/M09 A3007 RMK A01 T01711093  RH  016%=      5-min Rain = 0
KTAS 202248Z 21016KT 17/M09 A3007 RMK A01 T01711093  RH  016%=      5-min Rain = 0
KTAS 202249Z 21013KT 17/M09 A3007 RMK A01 T01691091  RH  016%=      5-min Rain = 0
KTAS 202250Z 21012KT 17/M09 A3007 RMK A01 T01671089  RH  016%=      5-min Rain = 0
KTAS 202251Z 21011KT 17/M09 A3007 RMK A01 T01661087  RH  017%=      5-min Rain = 0
KTAS 202252Z 21013KT 17/M09 A3007 RMK A01 T01661088  RH  017%=      5-min Rain = 0
KTAS 202253Z 20010KT 17/M09 A3007 RMK A01 T01661087  RH  017%=      5-min Rain = 0
KTAS 202254Z 20010KT 17/M08 A3007 RMK A01 T01661084  RH  017%=      5-min Rain = 0
KTAS 202255Z 20013KT 17/M08 A3007 RMK A01 T01661082  RH  017%=      5-min Rain = 0
KTAS 202256Z 19012KT 17/M08 A3007 RMK A01 T01671080  RH  018%=      5-min Rain = 0
KTAS 202257Z 20012KT 17/M08 A3007 RMK A01 T01671080  RH  018%=      5-min Rain = 0
KTAS 202258Z 20012KT 17/M08 A3007 RMK A01 T01681080  RH  017%=      5-min Rain = 0
KTAS 202259Z 20012KT 17/M08 A3007 RMK A01 T01681081  RH  017%=      5-min Rain = 0
KTAS 202300Z 19011KT 17/M08 A3007 RMK A01 T01661080  RH  018%=      5-min Rain = 0
KTAS 202301Z 20009KT 17/M08 A3007 RMK A01 T01651079  RH  018%=      5-min Rain = 0
KTAS 202302Z 20008KT 16/M08 A3007 RMK A01 T01631077  RH  018%=      5-min Rain = 0
KTAS 202303Z 20010KT 16/M08 A3007 RMK A01 T01631076  RH  019%=      5-min Rain = 0
KTAS 202304Z 20011KT 16/M08 A3007 RMK A01 T01631076  RH  019%=      5-min Rain = 0
KTAS 202305Z 20010KT 16/M08 A3007 RMK A01 T01641077  RH  018%=      5-min Rain = 0
KTAS 202306Z 20009KT 16/M08 A3007 RMK A01 T01641076  RH  019%=      5-min Rain = 0
KTAS 202307Z 20009KT 16/M08 A3007 RMK A01 T01641075  RH  019%=      5-min Rain = 0
KTAS 202308Z 20010KT 17/M08 A3007 RMK A01 T01661075  RH  019%=      5-min Rain = 0
KTAS 202309Z 19010KT 17/M08 A3007 RMK A01 T01671075  RH  018%=      5-min Rain = 0
KTAS 202310Z 19010KT 17/M08 A3007 RMK A01 T01671077  RH  018%=      5-min Rain = 0
KTAS 202311Z 20012KT 17/M08 A3007 RMK A01 T01671076  RH  018%=      5-min Rain = 0
KTAS 202312Z 20014KT 17/M08 A3007 RMK A01 T01671077  RH  018%=      5-min Rain = 0
KTAS 202313Z 20013KT 17/M08 A3007 RMK A01 T01661077  RH  018%=      5-min Rain = 0
KTAS 202314Z 20012KT 16/M08 A3007 RMK A01 T01641077  RH  018%=      5-min Rain = 0
KTAS 202315Z 19010KT 16/M08 A3007 RMK A01 T01631076  RH  019%=      5-min Rain = 0
KTAS 202316Z 20010KT 16/M08 A3007 RMK A01 T01611076  RH  019%=      5-min Rain = 0
KTAS 202317Z 20009KT 16/M08 A3007 RMK A01 T01601076  RH  019%=      5-min Rain = 0
KTAS 202318Z 20008KT 16/M08 A3007 RMK A01 T01591075  RH  019%=      5-min Rain = 0
KTAS 202319Z 20009KT 16/M08 A3007 RMK A01 T01581075  RH  019%=      5-min Rain = 0
KTAS 202320Z 20009KT 16/M07 A3007 RMK A01 T01571074  RH  020%=      5-min Rain = 0
KTAS 202321Z 19010KT 16/M07 A3007 RMK A01 T01571074  RH  020%=      5-min Rain = 0
KTAS 202322Z 19009KT 16/M07 A3007 RMK A01 T01571073  RH  020%=      5-min Rain = 0
KTAS 202323Z 19010KT 16/M07 A3007 RMK A01 T01561073  RH  020%=      5-min Rain = 0
KTAS 202324Z 19009KT 16/M07 A3007 RMK A01 T01561072  RH  020%=      5-min Rain = 0
KTAS 202325Z 19011KT 16/M07 A3007 RMK A01 T01551073  RH  020%=      5-min Rain = 0
KTAS 202326Z 20010KT 16/M07 A3007 RMK A01 T01551073  RH  020%=      5-min Rain = 0
KTAS 202327Z 19011KT 15/M07 A3007 RMK A01 T01541073  RH  020%=      5-min Rain = 0
KTAS 202328Z 19010KT 15/M07 A3007 RMK A01 T01541072  RH  020%=      5-min Rain = 0
KTAS 202329Z 20011KT 15/M07 A3007 RMK A01 T01531073  RH  020%=      5-min Rain = 0
KTAS 202330Z 19011KT 15/M07 A3007 RMK A01 T01541073  RH  020%=      5-min Rain = 0
KTAS 202331Z 19009KT 15/M07 A3007 RMK A01 T01541072  RH  020%=      5-min Rain = 0
KTAS 202332Z 19009KT 15/M07 A3007 RMK A01 T01521072  RH  021%=      5-min Rain = 0
KTAS 202333Z 19010KT 15/M07 A3007 RMK A01 T01511072  RH  021%=      5-min Rain = 0
KTAS 202334Z 19010KT 15/M07 A3007 RMK A01 T01511073  RH  021%=      5-min Rain = 0
KTAS 202335Z 19010KT 15/M07 A3007 RMK A01 T01511072  RH  021%=      5-min Rain = 0
KTAS 202336Z 19009KT 15/M07 A3007 RMK A01 T01501073  RH  021%=      5-min Rain = 0
KTAS 202337Z 19010KT 15/M07 A3007 RMK A01 T01501074  RH  021%=      5-min Rain = 0
KTAS 202338Z 20010KT 15/M07 A3007 RMK A01 T01501074  RH  021%=      5-min Rain = 0
KTAS 202339Z 19009KT 15/M07 A3007 RMK A01 T01491074  RH  021%=      5-min Rain = 0
KTAS 202340Z 20009KT 15/M07 A3007 RMK A01 T01471074  RH  021%=      5-min Rain = 0
KTAS 202341Z 19010KT 15/M07 A3007 RMK A01 T01451074  RH  021%=      5-min Rain = 0
KTAS 202342Z 19010KT 15/M07 A3007 RMK A01 T01451074  RH  021%=      5-min Rain = 0
KTAS 202343Z 19009KT 14/M07 A3007 RMK A01 T01441073  RH  021%=      5-min Rain = 0
KTAS 202344Z 19009KT 14/M07 A3007 RMK A01 T01431073  RH  022%=      5-min Rain = 0
KTAS 202345Z 19008KT 14/M07 A3007 RMK A01 T01411073  RH  022%=      5-min Rain = 0
KTAS 202346Z 19008KT 14/M07 A3007 RMK A01 T01401072  RH  022%=      5-min Rain = 0
KTAS 202347Z 19008KT 14/M07 A3006 RMK A01 T01381072  RH  023%=      5-min Rain = 0
KTAS 202348Z 19008KT 14/M07 A3006 RMK A01 T01371072  RH  023%=      5-min Rain = 0
KTAS 202349Z 19008KT 14/M07 A3006 RMK A01 T01361071  RH  023%=      5-min Rain = 0
KTAS 202350Z 19009KT 14/M07 A3006 RMK A01 T01351071  RH  023%=      5-min Rain = 0
KTAS 202351Z 19009KT 14/M07 A3006 RMK A01 T01351070  RH  023%=      5-min Rain = 0
KTAS 202352Z 19009KT 13/M07 A3006 RMK A01 T01341070  RH  023%=      5-min Rain = 0
KTAS 202353Z 19009KT 13/M07 A3006 RMK A01 T01341070  RH  024%=      5-min Rain = 0
KTAS 202354Z 19008KT 13/M07 A3006 RMK A01 T01331070  RH  024%=      5-min Rain = 0
KTAS 202355Z 19008KT 13/M07 A3006 RMK A01 T01321069  RH  024%=      5-min Rain = 0
KTAS 202356Z 19009KT 13/M07 A3006 RMK A01 T01311069  RH  024%=      5-min Rain = 0
KTAS 202357Z 19009KT 13/M07 A3006 RMK A01 T01301069  RH  024%=      5-min Rain = 0
KTAS 202358Z 19009KT 13/M07 A3006 RMK A01 T01281068  RH  025%=      5-min Rain = 0
KTAS 202359Z 19009KT 13/M07 A3006 RMK A01 T01281068  RH  025%=      5-min Rain = 0
KTAS 210000Z 19010KT 13/M07 A3006 RMK A01 T01281068  RH  025%=      5-min Rain = 0
KTAS 210001Z 19009KT 13/M07 A3006 RMK A01 T01281067  RH  025%=      5-min Rain = 0
KTAS 210002Z 19009KT 13/M07 A3006 RMK A01 T01281067  RH  025%=      5-min Rain = 0
KTAS 210003Z 19009KT 13/M07 A3006 RMK A01 T01271067  RH  025%=      5-min Rain = 0
KTAS 210004Z 19009KT 13/M07 A3006 RMK A01 T01251067  RH  025%=      5-min Rain = 0
KTAS 210005Z 19009KT 12/M07 A3006 RMK A01 T01241067  RH  026%=      5-min Rain = 0
KTAS 210006Z 19009KT 12/M07 A3006 RMK A01 T01231067  RH  026%=      5-min Rain = 0
KTAS 210007Z 19009KT 12/M07 A3006 RMK A01 T01221067  RH  026%=      5-min Rain = 0
KTAS 210008Z 19009KT 12/M07 A3006 RMK A01 T01211067  RH  026%=      5-min Rain = 0
KTAS 210009Z 19008KT 12/M07 A3006 RMK A01 T01201067  RH  026%=      5-min Rain = 0
KTAS 210010Z 19008KT 12/M07 A3006 RMK A01 T01191067  RH  027%=      5-min Rain = 0
KTAS 210011Z 19008KT 12/M07 A3006 RMK A01 T01181067  RH  027%=      5-min Rain = 0
KTAS 210012Z 19008KT 12/M07 A3006 RMK A01 T01161067  RH  027%=      5-min Rain = 0
KTAS 210013Z 19009KT 12/M07 A3006 RMK A01 T01151067  RH  027%=      5-min Rain = 0
KTAS 210014Z 19009KT 11/M07 A3006 RMK A01 T01141067  RH  028%=      5-min Rain = 0
KTAS 210015Z 19009KT 11/M07 A3006 RMK A01 T01131067  RH  028%=      5-min Rain = 0
KTAS 210016Z 19009KT 11/M07 A3006 RMK A01 T01111067  RH  028%=      5-min Rain = 0
KTAS 210017Z 19009KT 11/M07 A3006 RMK A01 T01101067  RH  028%=      5-min Rain = 0
KTAS 210018Z 19009KT 11/M07 A3006 RMK A01 T01091067  RH  028%=      5-min Rain = 0
KTAS 210019Z 19009KT 11/M07 A3006 RMK A01 T01081067  RH  029%=      5-min Rain = 0
KTAS 210020Z 18009KT 11/M07 A3006 RMK A01 T01071067  RH  029%=      5-min Rain = 0
KTAS 210021Z 18008KT 11/M07 A3006 RMK A01 T01071067  RH  029%=      5-min Rain = 0
KTAS 210022Z 18008KT 11/M07 A3006 RMK A01 T01071067  RH  029%=      5-min Rain = 0
KTAS 210023Z 18008KT 11/M07 A3006 RMK A01 T01081067  RH  029%=      5-min Rain = 0
KTAS 210024Z 18009KT 11/M07 A3006 RMK A01 T01071067  RH  029%=      5-min Rain = 0
KTAS 210025Z 19008KT 11/M07 A3006 RMK A01 T01071068  RH  029%=      5-min Rain = 0
KTAS 210026Z 19008KT 11/M07 A3006 RMK A01 T01061068  RH  029%=      5-min Rain = 0
KTAS 210027Z 19008KT 11/M07 A3006 RMK A01 T01061068  RH  029%=      5-min Rain = 0
KTAS 210028Z 19008KT 11/M07 A3006 RMK A01 T01051068  RH  029%=      5-min Rain = 0
KTAS 210029Z 18009KT 10/M07 A3006 RMK A01 T01041068  RH  029%=      5-min Rain = 0
KTAS 210030Z 18009KT 10/M07 A3006 RMK A01 T01031068  RH  029%=      5-min Rain = 0
KTAS 210031Z 18009KT 10/M07 A3006 RMK A01 T01031068  RH  029%=      5-min Rain = 0
KTAS 210032Z 18010G15KT 10/M07 A3006 RMK A01 T01031068  RH  029%=      5-min Rain = 0
KTAS 210033Z 18009KT 11/M07 A3006 RMK A01 T01051067  RH  029%=      5-min Rain = 0
KTAS 210034Z 18009KT 11/M07 A3006 RMK A01 T01081067  RH  029%=      5-min Rain = 0
KTAS 210035Z 18008KT 11/M07 A3006 RMK A01 T01111067  RH  028%=      5-min Rain = 0
KTAS 210036Z 18009KT 11/M07 A3006 RMK A01 T01101067  RH  028%=      5-min Rain = 0
KTAS 210037Z 18009KT 11/M07 A3006 RMK A01 T01101067  RH  028%=      5-min Rain = 0
KTAS 210038Z 18009KT 11/M07 A3006 RMK A01 T01101067  RH  028%=      5-min Rain = 0
KTAS 210039Z 18010KT 11/M07 A3006 RMK A01 T01111067  RH  028%=      5-min Rain = 0
KTAS 210040Z 18009KT 11/M07 A3006 RMK A01 T01101067  RH  028%=      5-min Rain = 0
KTAS 210041Z 18010KT 11/M07 A3006 RMK A01 T01101066  RH  028%=      5-min Rain = 0
KTAS 210042Z 18009KT 11/M07 A3006 RMK A01 T01101066  RH  029%=      5-min Rain = 0
KTAS 210043Z 18009KT 11/M07 A3006 RMK A01 T01091065  RH  029%=      5-min Rain = 0
KTAS 210044Z 18009KT 11/M07 A3006 RMK A01 T01081065  RH  029%=      5-min Rain = 0
KTAS 210045Z 18009KT 11/M07 A3006 RMK A01 T01071066  RH  029%=      5-min Rain = 0
KTAS 210046Z 18009KT 11/M07 A3006 RMK A01 T01051066  RH  030%=      5-min Rain = 0
KTAS 210047Z 18009KT 10/M07 A3006 RMK A01 T01031066  RH  030%=      5-min Rain = 0
KTAS 210048Z 18009KT 10/M07 A3006 RMK A01 T01011066  RH  030%=      5-min Rain = 0
KTAS 210049Z 18008KT 10/M07 A3006 RMK A01 T01001066  RH  030%=      5-min Rain = 0
KTAS 210050Z 18009KT 10/M07 A3006 RMK A01 T00991066  RH  031%=      5-min Rain = 0
KTAS 210051Z 18009KT 10/M07 A3006 RMK A01 T00981066  RH  031%=      5-min Rain = 0
KTAS 210052Z 18009KT 10/M07 A3006 RMK A01 T00971066  RH  031%=      5-min Rain = 0
KTAS 210053Z 18010KT 10/M07 A3006 RMK A01 T00971066  RH  031%=      5-min Rain = 0
KTAS 210054Z 18009KT 10/M07 A3006 RMK A01 T00971066  RH  031%=      5-min Rain = 0
KTAS 210055Z 18010KT 10/M07 A3006 RMK A01 T00971066  RH  031%=      5-min Rain = 0
KTAS 210056Z 18010KT 10/M07 A3006 RMK A01 T00971065  RH  031%=      5-min Rain = 0
KTAS 210057Z 18010KT 10/M07 A3006 RMK A01 T00971065  RH  031%=      5-min Rain = 0
KTAS 210058Z 18009KT 10/M07 A3006 RMK A01 T00971065  RH  031%=      5-min Rain = 0
KTAS 210059Z 18009KT 10/M07 A3006 RMK A01 T00971065  RH  031%=      5-min Rain = 0
KTAS 210100Z 18009KT 10/M06 A3006 RMK A01 T00971064  RH  032%=      5-min Rain = 0
KTAS 210101Z 18009KT 10/M06 A3006 RMK A01 T00971064  RH  032%=      5-min Rain = 0
KTAS 210102Z 18009KT 10/M06 A3006 RMK A01 T00961064  RH  032%=      5-min Rain = 0
KTAS 210103Z 18009KT 10/M06 A3006 RMK A01 T00951064  RH  032%=      5-min Rain = 0
KTAS 210104Z 18009KT 09/M06 A3006 RMK A01 T00931063  RH  032%=      5-min Rain = 0
KTAS 210105Z 18010KT 09/M06 A3006 RMK A01 T00921063  RH  033%=      5-min Rain = 0
KTAS 210106Z 18010KT 09/M06 A3006 RMK A01 T00921063  RH  033%=      5-min Rain = 0
KTAS 210107Z 18010KT 09/M06 A3006 RMK A01 T00921063  RH  033%=      5-min Rain = 0
KTAS 210108Z 18010KT 09/M06 A3006 RMK A01 T00921062  RH  033%=      5-min Rain = 0
KTAS 210109Z 18010KT 09/M06 A3006 RMK A01 T00921062  RH  033%=      5-min Rain = 0
KTAS 210110Z 18010KT 09/M06 A3006 RMK A01 T00921062  RH  033%=      5-min Rain = 0
KTAS 210111Z 18009KT 09/M06 A3006 RMK A01 T00911061  RH  034%=      5-min Rain = 0
KTAS 210112Z 18010KT 09/M06 A3006 RMK A01 T00911061  RH  034%=      5-min Rain = 0
KTAS 210113Z 18010KT 09/M06 A3006 RMK A01 T00911060  RH  034%=      5-min Rain = 0
KTAS 210114Z 18010KT 09/M06 A3006 RMK A01 T00911060  RH  034%=      5-min Rain = 0
KTAS 210115Z 18011KT 09/M06 A3006 RMK A01 T00921059  RH  034%=      5-min Rain = 0
KTAS 210116Z 18010KT 09/M06 A3006 RMK A01 T00931059  RH  034%=      5-min Rain = 0
KTAS 210117Z 18010KT 09/M06 A3006 RMK A01 T00931059  RH  034%=      5-min Rain = 0
KTAS 210118Z 18011KT 09/M06 A3006 RMK A01 T00931058  RH  034%=      5-min Rain = 0
KTAS 210119Z 18010KT 09/M06 A3006 RMK A01 T00931058  RH  034%=      5-min Rain = 0
KTAS 210120Z 18009KT 09/M06 A3006 RMK A01 T00931058  RH  034%=      5-min Rain = 0
KTAS 210121Z 18009KT 09/M06 A3006 RMK A01 T00921058  RH  034%=      5-min Rain = 0
KTAS 210122Z 18010KT 09/M06 A3006 RMK A01 T00911058  RH  034%=      5-min Rain = 0
KTAS 210123Z 18009KT 09/M06 A3006 RMK A01 T00901058  RH  035%=      5-min Rain = 0
KTAS 210124Z 18009KT 09/M06 A3006 RMK A01 T00891058  RH  035%=      5-min Rain = 0
KTAS 210125Z 18010KT 09/M06 A3006 RMK A01 T00891058  RH  035%=      5-min Rain = 0
KTAS 210126Z 18009KT 09/M06 A3006 RMK A01 T00891057  RH  035%=      5-min Rain = 0
KTAS 210127Z 18009KT 09/M06 A3006 RMK A01 T00891057  RH  035%=      5-min Rain = 0
KTAS 210128Z 18009KT 09/M06 A3006 RMK A01 T00881057  RH  035%=      5-min Rain = 0
KTAS 210129Z 18009KT 09/M06 A3006 RMK A01 T00881057  RH  035%=      5-min Rain = 0
KTAS 210130Z 18010KT 09/M06 A3006 RMK A01 T00881057  RH  035%=      5-min Rain = 0
KTAS 210131Z 18009KT 09/M06 A3006 RMK A01 T00901056  RH  035%=      5-min Rain = 0
KTAS 210132Z 18009KT 09/M06 A3006 RMK A01 T00911056  RH  035%=      5-min Rain = 0
KTAS 210133Z 18009KT 09/M06 A3006 RMK A01 T00911056  RH  035%=      5-min Rain = 0
KTAS 210134Z 18009KT 09/M06 A3006 RMK A01 T00911056  RH  035%=      5-min Rain = 0
KTAS 210135Z 18008KT 09/M06 A3006 RMK A01 T00901056  RH  035%=      5-min Rain = 0
KTAS 210136Z 18009KT 09/M06 A3006 RMK A01 T00901056  RH  035%=      5-min Rain = 0
KTAS 210137Z 18009KT 09/M06 A3006 RMK A01 T00901056  RH  035%=      5-min Rain = 0
KTAS 210138Z 18009KT 09/M06 A3006 RMK A01 T00901056  RH  035%=      5-min Rain = 0
KTAS 210139Z 18008KT 09/M06 A3006 RMK A01 T00901056  RH  035%=      5-min Rain = 0
KTAS 210140Z 18008KT 09/M06 A3006 RMK A01 T00901056  RH  035%=      5-min Rain = 0
KTAS 210141Z 18009KT 09/M06 A3006 RMK A01 T00901056  RH  035%=      5-min Rain = 0
KTAS 210142Z 18009KT 09/M06 A3006 RMK A01 T00901056  RH  035%=      5-min Rain = 0
KTAS 210143Z 18008KT 09/M06 A3006 RMK A01 T00891056  RH  035%=      5-min Rain = 0
KTAS 210144Z 18009KT 09/M06 A3006 RMK A01 T00881056  RH  036%=      5-min Rain = 0
KTAS 210145Z 18008KT 09/M06 A3006 RMK A01 T00871056  RH  036%=      5-min Rain = 0
KTAS 210146Z 18008KT 09/M06 A3005 RMK A01 T00871056  RH  036%=      5-min Rain = 0
KTAS 210147Z 18009KT 09/M06 A3005 RMK A01 T00861056  RH  036%=      5-min Rain = 0
KTAS 210148Z 18009KT 09/M06 A3005 RMK A01 T00861055  RH  036%=      5-min Rain = 0
KTAS 210149Z 18009KT 09/M06 A3005 RMK A01 T00861055  RH  036%=      5-min Rain = 0
KTAS 210150Z 18010KT 09/M05 A3005 RMK A01 T00871054  RH  036%=      5-min Rain = 0
KTAS 210151Z 18010KT 09/M05 A3005 RMK A01 T00881054  RH  036%=      5-min Rain = 0
KTAS 210152Z 18010KT 09/M06 A3005 RMK A01 T00891055  RH  036%=      5-min Rain = 0
KTAS 210153Z 18010KT 09/M06 A3005 RMK A01 T00891055  RH  036%=      5-min Rain = 0
KTAS 210154Z 18009KT 09/M06 A3005 RMK A01 T00891055  RH  036%=      5-min Rain = 0
KTAS 210155Z 18009KT 09/M06 A3005 RMK A01 T00891055  RH  036%=      5-min Rain = 0
KTAS 210156Z 18009KT 09/M06 A3005 RMK A01 T00881055  RH  036%=      5-min Rain = 0
KTAS 210157Z 18009KT 09/M06 A3005 RMK A01 T00881055  RH  036%=      5-min Rain = 0
KTAS 210158Z 18010KT 09/M06 A3005 RMK A01 T00881055  RH  036%=      5-min Rain = 0
KTAS 210159Z 18010KT 09/M06 A3005 RMK A01 T00891055  RH  036%=      5-min Rain = 0
KTAS 210200Z 18009KT 09/M06 A3005 RMK A01 T00891055  RH  036%=      5-min Rain = 0
KTAS 210201Z 18008KT 09/M06 A3005 RMK A01 T00881055  RH  036%=      5-min Rain = 0
KTAS 210202Z 18009KT 09/M06 A3005 RMK A01 T00871055  RH  036%=      5-min Rain = 0
KTAS 210203Z 18008KT 09/M06 A3005 RMK A01 T00861055  RH  036%=      5-min Rain = 0
KTAS 210204Z 18009KT 09/M06 A3005 RMK A01 T00861055  RH  037%=      5-min Rain = 0
KTAS 210205Z 18009KT 09/M06 A3005 RMK A01 T00851055  RH  037%=      5-min Rain = 0
KTAS 210206Z 18008KT 09/M06 A3005 RMK A01 T00861055  RH  037%=      5-min Rain = 0
KTAS 210207Z 18009KT 09/M06 A3005 RMK A01 T00861055  RH  037%=      5-min Rain = 0
KTAS 210208Z 18009KT 09/M06 A3005 RMK A01 T00861055  RH  037%=      5-min Rain = 0
KTAS 210209Z 18009KT 09/M05 A3005 RMK A01 T00861054  RH  037%=      5-min Rain = 0
KTAS 210210Z 18009KT 09/M06 A3004 RMK A01 T00861055  RH  037%=      5-min Rain = 0
KTAS 210211Z 18009KT 09/M06 A3004 RMK A01 T00861055  RH  036%=      5-min Rain = 0
KTAS 210212Z 18009KT 09/M06 A3004 RMK A01 T00861055  RH  037%=      5-min Rain = 0
KTAS 210213Z 18009KT 08/M06 A3004 RMK A01 T00841055  RH  037%=      5-min Rain = 0
KTAS 210214Z 18009KT 08/M06 A3004 RMK A01 T00831055  RH  037%=      5-min Rain = 0
KTAS 210215Z 18009KT 08/M06 A3004 RMK A01 T00821055  RH  037%=      5-min Rain = 0
KTAS 210216Z 18009KT 08/M06 A3004 RMK A01 T00811055  RH  038%=      5-min Rain = 0
KTAS 210217Z 18009KT 08/M06 A3004 RMK A01 T00801055  RH  038%=      5-min Rain = 0
KTAS 210218Z 18010KT 08/M06 A3004 RMK A01 T00791055  RH  038%=      5-min Rain = 0
KTAS 210219Z 18010KT 08/M05 A3004 RMK A01 T00791054  RH  038%=      5-min Rain = 0
KTAS 210220Z 18009KT 08/M05 A3004 RMK A01 T00791054  RH  038%=      5-min Rain = 0
KTAS 210221Z 18010KT 08/M05 A3004 RMK A01 T00781054  RH  039%=      5-min Rain = 0
KTAS 210222Z 18010KT 08/M05 A3004 RMK A01 T00771054  RH  039%=      5-min Rain = 0
KTAS 210223Z 18009KT 08/M05 A3004 RMK A01 T00761054  RH  039%=      5-min Rain = 0
KTAS 210224Z 18010KT 08/M05 A3004 RMK A01 T00751054  RH  039%=      5-min Rain = 0
KTAS 210225Z 18010KT 08/M05 A3004 RMK A01 T00751053  RH  040%=      5-min Rain = 0
KTAS 210226Z 17009KT 08/M05 A3004 RMK A01 T00751053  RH  040%=      5-min Rain = 0
KTAS 210227Z 18009KT 08/M05 A3004 RMK A01 T00751053  RH  040%=      5-min Rain = 0
KTAS 210228Z 18010KT 07/M05 A3004 RMK A01 T00741053  RH  040%=      5-min Rain = 0
KTAS 210229Z 18010KT 07/M05 A3004 RMK A01 T00741054  RH  040%=      5-min Rain = 0
KTAS 210230Z 18009KT 07/M05 A3004 RMK A01 T00721054  RH  040%=      5-min Rain = 0
KTAS 210231Z 18009KT 07/M05 A3004 RMK A01 T00721054  RH  041%=      5-min Rain = 0
KTAS 210232Z 18009KT 07/M05 A3004 RMK A01 T00721053  RH  041%=      5-min Rain = 0
KTAS 210233Z 18009KT 07/M05 A3004 RMK A01 T00721053  RH  040%=      5-min Rain = 0
KTAS 210234Z 18009KT 07/M05 A3004 RMK A01 T00721054  RH  040%=      5-min Rain = 0
KTAS 210235Z 18009KT 07/M05 A3004 RMK A01 T00711054  RH  041%=      5-min Rain = 0
KTAS 210236Z 18010KT 07/M05 A3004 RMK A01 T00711053  RH  041%=      5-min Rain = 0
KTAS 210237Z 18009KT 07/M05 A3004 RMK A01 T00711053  RH  041%=      5-min Rain = 0
KTAS 210238Z 18009KT 07/M05 A3004 RMK A01 T00701053  RH  041%=      5-min Rain = 0
KTAS 210239Z 18009KT 07/M05 A3004 RMK A01 T00701053  RH  041%=      5-min Rain = 0
KTAS 210240Z 18010KT 07/M05 A3004 RMK A01 T00701053  RH  041%=      5-min Rain = 0
KTAS 210241Z 18010KT 07/M05 A3004 RMK A01 T00701052  RH  041%=      5-min Rain = 0
KTAS 210242Z 18010KT 07/M05 A3004 RMK A01 T00711052  RH  041%=      5-min Rain = 0
KTAS 210243Z 18010KT 07/M05 A3004 RMK A01 T00711051  RH  041%=      5-min Rain = 0
KTAS 210244Z 18009KT 07/M05 A3004 RMK A01 T00711051  RH  042%=      5-min Rain = 0
KTAS 210245Z 18010KT 07/M05 A3004 RMK A01 T00711050  RH  042%=      5-min Rain = 0
KTAS 210246Z 18010KT 07/M05 A3004 RMK A01 T00711050  RH  042%=      5-min Rain = 0
KTAS 210247Z 18010KT 07/M05 A3004 RMK A01 T00721049  RH  042%=      5-min Rain = 0
KTAS 210248Z 18010KT 07/M05 A3004 RMK A01 T00731049  RH  042%=      5-min Rain = 0
KTAS 210249Z 18010KT 07/M05 A3003 RMK A01 T00741049  RH  042%=      5-min Rain = 0
KTAS 210250Z 18009KT 07/M05 A3003 RMK A01 T00741048  RH  042%=      5-min Rain = 0
KTAS 210251Z 18010KT 08/M05 A3003 RMK A01 T00751047  RH  042%=      5-min Rain = 0
KTAS 210252Z 18009KT 08/M05 A3003 RMK A01 T00761045  RH  042%=      5-min Rain = 0
KTAS 210253Z 18009G14KT 08/M05 A3003 RMK A01 T00781046  RH  041%=      5-min Rain = 0
KTAS 210254Z 18010KT 08/M05 A3003 RMK A01 T00781045  RH  041%=      5-min Rain = 0
KTAS 210255Z 18010KT 08/M04 A3003 RMK A01 T00791044  RH  041%=      5-min Rain = 0
KTAS 210256Z 18009KT 08/M04 A3003 RMK A01 T00811044  RH  041%=      5-min Rain = 0
KTAS 210257Z 18009KT 08/M04 A3003 RMK A01 T00821043  RH  041%=      5-min Rain = 0
KTAS 210258Z 18009KT 08/M04 A3003 RMK A01 T00821043  RH  041%=      5-min Rain = 0
KTAS 210259Z 18009KT 08/M04 A3003 RMK A01 T00821042  RH  041%=      5-min Rain = 0
KTAS 210300Z 18010KT 08/M04 A3003 RMK A01 T00831042  RH  041%=      5-min Rain = 0
KTAS 210301Z 18009KT 08/M04 A3003 RMK A01 T00841041  RH  041%=      5-min Rain = 0
KTAS 210302Z 18008KT 09/M04 A3003 RMK A01 T00851041  RH  041%=      5-min Rain = 0
KTAS 210303Z 18009KT 09/M04 A3003 RMK A01 T00851041  RH  041%=      5-min Rain = 0
KTAS 210304Z 18009KT 08/M04 A3003 RMK A01 T00841041  RH  041%=      5-min Rain = 0
KTAS 210305Z 18008KT 08/M04 A3003 RMK A01 T00821041  RH  042%=      5-min Rain = 0
KTAS 210306Z 19009KT 08/M04 A3003 RMK A01 T00821040  RH  042%=      5-min Rain = 0
KTAS 210307Z 18008KT 08/M04 A3003 RMK A01 T00831039  RH  042%=      5-min Rain = 0
KTAS 210308Z 19009KT 09/M04 A3003 RMK A01 T00851038  RH  041%=      5-min Rain = 0
KTAS 210309Z 19010KT 09/M04 A3003 RMK A01 T00861039  RH  041%=      5-min Rain = 0
KTAS 210310Z 18011KT 09/M04 A3003 RMK A01 T00861038  RH  041%=      5-min Rain = 0
KTAS 210311Z 19010KT 09/M04 A3003 RMK A01 T00881037  RH  041%=      5-min Rain = 0
KTAS 210312Z 19011KT 09/M04 A3003 RMK A01 T00881037  RH  041%=      5-min Rain = 0
KTAS 210313Z 19011KT 09/M04 A3003 RMK A01 T00881037  RH  041%=      5-min Rain = 0
KTAS 210314Z 19012KT 09/M04 A3003 RMK A01 T00891037  RH  041%=      5-min Rain = 0
KTAS 210315Z 19011KT 09/M04 A3003 RMK A01 T00901037  RH  041%=      5-min Rain = 0
KTAS 210316Z 19012KT 09/M04 A3003 RMK A01 T00891037  RH  041%=      5-min Rain = 0
KTAS 210317Z 19011KT 09/M04 A3003 RMK A01 T00901037  RH  041%=      5-min Rain = 0
KTAS 210318Z 19011KT 09/M04 A3003 RMK A01 T00881037  RH  041%=      5-min Rain = 0
KTAS 210319Z 19011KT 09/M04 A3003 RMK A01 T00881037  RH  041%=      5-min Rain = 0
KTAS 210320Z 19012KT 09/M04 A3003 RMK A01 T00881037  RH  041%=      5-min Rain = 0
KTAS 210321Z 19011KT 09/M04 A3002 RMK A01 T00891036  RH  041%=      5-min Rain = 0
KTAS 210322Z 19011KT 09/M04 A3002 RMK A01 T00881037  RH  041%=      5-min Rain = 0
KTAS 210323Z 19011KT 09/M04 A3002 RMK A01 T00881036  RH  041%=      5-min Rain = 0
KTAS 210324Z 19012KT 09/M04 A3002 RMK A01 T00881036  RH  041%=      5-min Rain = 0
KTAS 210325Z 19012KT 09/M04 A3002 RMK A01 T00881036  RH  041%=      5-min Rain = 0
KTAS 210326Z 19012KT 09/M04 A3002 RMK A01 T00891036  RH  041%=      5-min Rain = 0
KTAS 210327Z 19012KT 09/M04 A3002 RMK A01 T00881035  RH  042%=      5-min Rain = 0
KTAS 210328Z 19011KT 09/M04 A3002 RMK A01 T00881035  RH  042%=      5-min Rain = 0
KTAS 210329Z 19012KT 09/M04 A3002 RMK A01 T00881035  RH  042%=      5-min Rain = 0
KTAS 210330Z 19012KT 09/M04 A3002 RMK A01 T00881035  RH  042%=      5-min Rain = 0
KTAS 210331Z 19011KT 09/M04 A3002 RMK A01 T00871035  RH  042%=      5-min Rain = 0
KTAS 210332Z 19012KT 09/M03 A3002 RMK A01 T00871034  RH  042%=      5-min Rain = 0
KTAS 210333Z 19012KT 09/M03 A3002 RMK A01 T00871034  RH  042%=      5-min Rain = 0
KTAS 210334Z 19011KT 09/M03 A3002 RMK A01 T00871034  RH  042%=      5-min Rain = 0
KTAS 210335Z 19012KT 09/M03 A3002 RMK A01 T00861034  RH  043%=      5-min Rain = 0
KTAS 210336Z 19012KT 09/M03 A3001 RMK A01 T00861034  RH  043%=      5-min Rain = 0
KTAS 210337Z 19012KT 09/M03 A3001 RMK A01 T00871034  RH  042%=      5-min Rain = 0
KTAS 210338Z 18011KT 09/M03 A3001 RMK A01 T00861034  RH  043%=      5-min Rain = 0
KTAS 210339Z 18012KT 09/M03 A3001 RMK A01 T00851034  RH  043%=      5-min Rain = 0
KTAS 210340Z 18012KT 09/M03 A3001 RMK A01 T00851033  RH  043%=      5-min Rain = 0
KTAS 210341Z 19012KT 09/M03 A3001 RMK A01 T00851033  RH  043%=      5-min Rain = 0
KTAS 210342Z 19011KT 09/M03 A3001 RMK A01 T00851033  RH  043%=      5-min Rain = 0
KTAS 210343Z 19011KT 08/M03 A3001 RMK A01 T00831034  RH  043%=      5-min Rain = 0
KTAS 210344Z 19011KT 08/M03 A3001 RMK A01 T00841033  RH  044%=      5-min Rain = 0
KTAS 210345Z 18012KT 08/M03 A3001 RMK A01 T00831033  RH  044%=      5-min Rain = 0
KTAS 210346Z 18012KT 08/M03 A3001 RMK A01 T00831033  RH  044%=      5-min Rain = 0
KTAS 210347Z 18012KT 08/M03 A3001 RMK A01 T00831033  RH  044%=      5-min Rain = 0
KTAS 210348Z 18013KT 08/M03 A3001 RMK A01 T00831032  RH  044%=      5-min Rain = 0
KTAS 210349Z 18011KT 08/M03 A3001 RMK A01 T00831032  RH  044%=      5-min Rain = 0
KTAS 210350Z 18011KT 08/M03 A3001 RMK A01 T00831032  RH  044%=      5-min Rain = 0
KTAS 210351Z 18010KT 08/M03 A3001 RMK A01 T00821032  RH  044%=      5-min Rain = 0
KTAS 210352Z 19010KT 08/M03 A3001 RMK A01 T00811032  RH  045%=      5-min Rain = 0
KTAS 210353Z 18012KT 08/M03 A3001 RMK A01 T00811032  RH  045%=      5-min Rain = 0
KTAS 210354Z 18010KT 08/M03 A3001 RMK A01 T00811031  RH  045%=      5-min Rain = 0
KTAS 210355Z 18011KT 08/M03 A3001 RMK A01 T00811031  RH  045%=      5-min Rain = 0
KTAS 210356Z 19012KT 08/M03 A3001 RMK A01 T00811031  RH  045%=      5-min Rain = 0
KTAS 210357Z 18010KT 08/M03 A3001 RMK A01 T00811031  RH  045%=      5-min Rain = 0
KTAS 210358Z 18012KT 08/M03 A3001 RMK A01 T00811030  RH  045%=      5-min Rain = 0
KTAS 210359Z 19011KT 08/M03 A3001 RMK A01 T00821030  RH  045%=      5-min Rain = 0
KTAS 210400Z 19011KT 08/M03 A3001 RMK A01 T00821030  RH  045%=      5-min Rain = 0
KTAS 210401Z 19012KT 08/M03 A30 RMK A01 T00811030  RH  045%=      5-min Rain = 0
KTAS 210402Z 19011KT 08/M03 A30 RMK A01 T00811030  RH  045%=      5-min Rain = 0
KTAS 210403Z 19012KT 08/M03 A30 RMK A01 T00811029  RH  046%=      5-min Rain = 0
KTAS 210404Z 19014KT 08/M03 A30 RMK A01 T00811029  RH  046%=      5-min Rain = 0
KTAS 210405Z 19011KT 08/M03 A30 RMK A01 T00821029  RH  045%=      5-min Rain = 0
KTAS 210406Z 19012KT 08/M03 A30 RMK A01 T00821029  RH  045%=      5-min Rain = 0
KTAS 210407Z 19011KT 08/M03 A3001 RMK A01 T00811029  RH  046%=      5-min Rain = 0
KTAS 210408Z 19013KT 08/M03 A3001 RMK A01 T00811029  RH  046%=      5-min Rain = 0
KTAS 210409Z 19013KT 08/M03 A3001 RMK A01 T00821029  RH  046%=      5-min Rain = 0
KTAS 210410Z 19013KT 08/M03 A3001 RMK A01 T00821029  RH  046%=      5-min Rain = 0
KTAS 210411Z 19013KT 08/M03 A3001 RMK A01 T00821029  RH  046%=      5-min Rain = 0
KTAS 210412Z 19012KT 08/M03 A3001 RMK A01 T00811029  RH  046%=      5-min Rain = 0
KTAS 210413Z 19012KT 08/M03 A3001 RMK A01 T00811029  RH  046%=      5-min Rain = 0
KTAS 210414Z 19012KT 08/M03 A3001 RMK A01 T00811029  RH  046%=      5-min Rain = 0
KTAS 210415Z 19012KT 08/M03 A3001 RMK A01 T00811029  RH  046%=      5-min Rain = 0
KTAS 210416Z 19012KT 08/M03 A3001 RMK A01 T00811029  RH  046%=      5-min Rain = 0
KTAS 210417Z 19010KT 08/M03 A3001 RMK A01 T00801029  RH  046%=      5-min Rain = 0
KTAS 210418Z 19012KT 08/M03 A3001 RMK A01 T00801029  RH  046%=      5-min Rain = 0
KTAS 210419Z 19011KT 08/M03 A3001 RMK A01 T00801029  RH  046%=      5-min Rain = 0
KTAS 210420Z 19011KT 08/M03 A3001 RMK A01 T00801029  RH  046%=      5-min Rain = 0
KTAS 210421Z 19011KT 08/M03 A3001 RMK A01 T00791029  RH  046%=      5-min Rain = 0
KTAS 210422Z 19012KT 08/M03 A3001 RMK A01 T00791029  RH  046%=      5-min Rain = 0
KTAS 210423Z 19011KT 08/M03 A3001 RMK A01 T00791029  RH  046%=      5-min Rain = 0
KTAS 210424Z 19012KT 08/M03 A3001 RMK A01 T00791029  RH  046%=      5-min Rain = 0
KTAS 210425Z 19011KT 08/M03 A3001 RMK A01 T00791029  RH  047%=      5-min Rain = 0
KTAS 210426Z 19011KT 08/M03 A3002 RMK A01 T00791028  RH  047%=      5-min Rain = 0
KTAS 210427Z 20012KT 08/M03 A3001 RMK A01 T00791028  RH  047%=      5-min Rain = 0
KTAS 210428Z 19012KT 08/M03 A3001 RMK A01 T00791028  RH  047%=      5-min Rain = 0
KTAS 210429Z 19012KT 08/M03 A3001 RMK A01 T00791028  RH  047%=      5-min Rain = 0
KTAS 210430Z 19011KT 08/M03 A3001 RMK A01 T00791028  RH  047%=      5-min Rain = 0
KTAS 210431Z 19011KT 08/M03 A3001 RMK A01 T00791028  RH  047%=      5-min Rain = 0
KTAS 210432Z 19012KT 08/M03 A3001 RMK A01 T00791028  RH  047%=      5-min Rain = 0
KTAS 210433Z 19011KT 08/M03 A3001 RMK A01 T00791028  RH  047%=      5-min Rain = 0
KTAS 210434Z 19012KT 08/M03 A3001 RMK A01 T00781028  RH  047%=      5-min Rain = 0
KTAS 210435Z 19012KT 08/M03 A3001 RMK A01 T00781028  RH  047%=      5-min Rain = 0
KTAS 210436Z 19012KT 08/M03 A3001 RMK A01 T00791028  RH  047%=      5-min Rain = 0
KTAS 210437Z 19012KT 08/M03 A3001 RMK A01 T00791028  RH  047%=      5-min Rain = 0
KTAS 210438Z 19013KT 08/M03 A3001 RMK A01 T00791028  RH  047%=      5-min Rain = 0
KTAS 210439Z 19013KT 08/M03 A3001 RMK A01 T00791027  RH  047%=      5-min Rain = 0
KTAS 210440Z 19012KT 08/M03 A3001 RMK A01 T00791028  RH  047%=      5-min Rain = 0
KTAS 210441Z 20012KT 08/M03 A3001 RMK A01 T00781028  RH  047%=      5-min Rain = 0
KTAS 210442Z 20012KT 08/M03 A3001 RMK A01 T00781028  RH  047%=      5-min Rain = 0
KTAS 210443Z 20012KT 08/M03 A3002 RMK A01 T00781027  RH  047%=      5-min Rain = 0
KTAS 210444Z 20013KT 08/M03 A3002 RMK A01 T00791027  RH  047%=      5-min Rain = 0
KTAS 210445Z 20012KT 08/M03 A3002 RMK A01 T00791027  RH  047%=      5-min Rain = 0
KTAS 210446Z 20013KT 08/M03 A3002 RMK A01 T00781027  RH  047%=      5-min Rain = 0
KTAS 210447Z 20014KT 08/M03 A3002 RMK A01 T00781027  RH  047%=      5-min Rain = 0
KTAS 210448Z 20014KT 08/M03 A3002 RMK A01 T00791027  RH  047%=      5-min Rain = 0
KTAS 210449Z 20015KT 08/M03 A3002 RMK A01 T00801027  RH  047%=      5-min Rain = 0
KTAS 210450Z 20014KT 08/M03 A3002 RMK A01 T00801027  RH  047%=      5-min Rain = 0
KTAS 210451Z 20013KT 08/M03 A3002 RMK A01 T00801027  RH  047%=      5-min Rain = 0
KTAS 210452Z 20013KT 08/M03 A3002 RMK A01 T00791027  RH  047%=      5-min Rain = 0
KTAS 210453Z 20011KT 08/M03 A3002 RMK A01 T00781027  RH  047%=      5-min Rain = 0
KTAS 210454Z 20013KT 08/M03 A3002 RMK A01 T00771028  RH  048%=      5-min Rain = 0
KTAS 210455Z 20013KT 08/M03 A3002 RMK A01 T00761027  RH  048%=      5-min Rain = 0
KTAS 210456Z 20013KT 08/M03 A3002 RMK A01 T00761027  RH  048%=      5-min Rain = 0
KTAS 210457Z 20012KT 08/M03 A3002 RMK A01 T00771027  RH  048%=      5-min Rain = 0
KTAS 210458Z 20013KT 08/M03 A3002 RMK A01 T00771027  RH  048%=      5-min Rain = 0
KTAS 210459Z 20015KT 08/M03 A3002 RMK A01 T00781026  RH  048%=      5-min Rain = 0
KTAS 210500Z 20014KT 08/M03 A3002 RMK A01 T00791026  RH  047%=      5-min Rain = 0
KTAS 210501Z 20014KT 08/M03 A3002 RMK A01 T00781027  RH  047%=      5-min Rain = 0
KTAS 210502Z 20013KT 08/M03 A3002 RMK A01 T00781027  RH  047%=      5-min Rain = 0
KTAS 210503Z 20013KT 08/M03 A3002 RMK A01 T00781027  RH  048%=      5-min Rain = 0
KTAS 210504Z 20015KT 08/M03 A3002 RMK A01 T00771027  RH  048%=      5-min Rain = 0
KTAS 210505Z 20013KT 08/M03 A3002 RMK A01 T00771027  RH  048%=      5-min Rain = 0
KTAS 210506Z 20012KT 08/M03 A3002 RMK A01 T00761027  RH  048%=      5-min Rain = 0
KTAS 210507Z 20012KT 08/M03 A3002 RMK A01 T00751027  RH  048%=      5-min Rain = 0
KTAS 210508Z 20013KT 08/M03 A3002 RMK A01 T00751027  RH  049%=      5-min Rain = 0
KTAS 210509Z 20011KT 07/M03 A3002 RMK A01 T00741027  RH  049%=      5-min Rain = 0
KTAS 210510Z 20013KT 07/M03 A3002 RMK A01 T00741027  RH  049%=      5-min Rain = 0
KTAS 210511Z 20012KT 07/M03 A3002 RMK A01 T00741027  RH  049%=      5-min Rain = 0
KTAS 210512Z 20012KT 07/M03 A3002 RMK A01 T00741027  RH  049%=      5-min Rain = 0
KTAS 210513Z 20012KT 07/M03 A3002 RMK A01 T00741027  RH  049%=      5-min Rain = 0
KTAS 210514Z 20012KT 07/M03 A3002 RMK A01 T00731027  RH  049%=      5-min Rain = 0
KTAS 210515Z 20012KT 07/M03 A3002 RMK A01 T00731027  RH  049%=      5-min Rain = 0
KTAS 210516Z 20011KT 07/M03 A3002 RMK A01 T00721027  RH  049%=      5-min Rain = 0
KTAS 210517Z 20011KT 07/M03 A3002 RMK A01 T00721027  RH  050%=      5-min Rain = 0
KTAS 210518Z 20013KT 07/M03 A3002 RMK A01 T00721027  RH  050%=      5-min Rain = 0
KTAS 210519Z 20011KT 07/M03 A3002 RMK A01 T00731026  RH  050%=      5-min Rain = 0
KTAS 210520Z 20011G16KT 07/M03 A3002 RMK A01 T00731026  RH  049%=      5-min Rain = 0
KTAS 210521Z 21013KT 07/M03 A3002 RMK A01 T00731026  RH  050%=      5-min Rain = 0
KTAS 210522Z 20013KT 07/M03 A3002 RMK A01 T00741026  RH  049%=      5-min Rain = 0
KTAS 210523Z 20013KT 07/M03 A3002 RMK A01 T00741025  RH  049%=      5-min Rain = 0
KTAS 210524Z 21015KT 08/M03 A3002 RMK A01 T00751025  RH  049%=      5-min Rain = 0
KTAS 210525Z 21013KT 08/M03 A3002 RMK A01 T00751025  RH  049%=      5-min Rain = 0
KTAS 210526Z 20012KT 07/M03 A3002 RMK A01 T00741025  RH  049%=      5-min Rain = 0
KTAS 210527Z 21012KT 07/M03 A3002 RMK A01 T00731025  RH  049%=      5-min Rain = 0
KTAS 210528Z 20014KT 07/M03 A3002 RMK A01 T00731025  RH  050%=      5-min Rain = 0
KTAS 210529Z 20014KT 07/M03 A3002 RMK A01 T00741025  RH  050%=      5-min Rain = 0
KTAS 210530Z 20012KT 07/M03 A3002 RMK A01 T00741025  RH  049%=      5-min Rain = 0
KTAS 210531Z 21013KT 07/M03 A3002 RMK A01 T00731025  RH  050%=      5-min Rain = 0
KTAS 210532Z 21012KT 07/M03 A3002 RMK A01 T00731025  RH  050%=      5-min Rain = 0
KTAS 210533Z 21013KT 07/M03 A3002 RMK A01 T00731025  RH  050%=      5-min Rain = 0
KTAS 210534Z 21014KT 07/M03 A3002 RMK A01 T00741025  RH  050%=      5-min Rain = 0
KTAS 210535Z 21014KT 07/M03 A3002 RMK A01 T00741025  RH  049%=      5-min Rain = 0
KTAS 210536Z 21014KT 07/M03 A3002 RMK A01 T00741025  RH  049%=      5-min Rain = 0
KTAS 210537Z 20013KT 07/M03 A3002 RMK A01 T00741025  RH  049%=      5-min Rain = 0
KTAS 210538Z 21013KT 07/M03 A3002 RMK A01 T00731026  RH  049%=      5-min Rain = 0
KTAS 210539Z 21013KT 07/M03 A3002 RMK A01 T00731025  RH  049%=      5-min Rain = 0
KTAS 210540Z 21014KT 07/M03 A3002 RMK A01 T00731026  RH  050%=      5-min Rain = 0
KTAS 210541Z 21013KT 07/M03 A3001 RMK A01 T00731026  RH  050%=      5-min Rain = 0
KTAS 210542Z 21014KT 07/M03 A3001 RMK A01 T00731026  RH  050%=      5-min Rain = 0
KTAS 210543Z 21014G20KT 07/M03 A3001 RMK A01 T00731026  RH  050%=      5-min Rain = 0
KTAS 210544Z 20015KT 07/M03 A3001 RMK A01 T00731026  RH  049%=      5-min Rain = 0
KTAS 210545Z 20014KT 07/M03 A3001 RMK A01 T00731026  RH  050%=      5-min Rain = 0
KTAS 210546Z 21014KT 07/M03 A3001 RMK A01 T00721026  RH  050%=      5-min Rain = 0
KTAS 210547Z 20013KT 07/M03 A3001 RMK A01 T00721026  RH  050%=      5-min Rain = 0
KTAS 210548Z 21014KT 07/M03 A3001 RMK A01 T00711026  RH  050%=      5-min Rain = 0
KTAS 210549Z 21014KT 07/M03 A3001 RMK A01 T00711026  RH  050%=      5-min Rain = 0
KTAS 210550Z 21014KT 07/M03 A3001 RMK A01 T00711026  RH  050%=      5-min Rain = 0
KTAS 210551Z 21014KT 07/M03 A3001 RMK A01 T00711026  RH  050%=      5-min Rain = 0
KTAS 210552Z 21012KT 07/M03 A3001 RMK A01 T00701026  RH  050%=      5-min Rain = 0
KTAS 210553Z 21013KT 07/M03 A3001 RMK A01 T00681026  RH  051%=      5-min Rain = 0
KTAS 210554Z 21014KT 07/M03 A3001 RMK A01 T00681026  RH  051%=      5-min Rain = 0
KTAS 210555Z 21014KT 07/M03 A3001 RMK A01 T00691026  RH  051%=      5-min Rain = 0
KTAS 210556Z 21013KT 07/M03 A3001 RMK A01 T00701026  RH  051%=      5-min Rain = 0
KTAS 210557Z 21013KT 07/M03 A3001 RMK A01 T00691026  RH  051%=      5-min Rain = 0
KTAS 210558Z 20012KT 07/M03 A3001 RMK A01 T00681026  RH  051%=      5-min Rain = 0
KTAS 210559Z 21012KT 07/M03 A3001 RMK A01 T00671026  RH  051%=      5-min Rain = 0

Page generated in 0.1212 seconds.